| time (UTC) | temp F | wind direction | speed MPH | gust MPH | rain 1hr in | rain 24hr in | rain mn in | humidity % | barometer mb |
| 20260506111801 | 63 | 202 | 1.0 | 3.0 | 0.01 | 0.01 | 0.01 | 85 | 1006.5 |
| 20260506111702 | 63 | 202 | 0.0 | 3.0 | 0.01 | 0.01 | 0.01 | 85 | 1006.5 |
| 20260506111600 | 63 | 167 | 3.0 | 3.0 | 0.01 | 0.01 | 0.01 | 85 | 1006.5 |
| 20260506111505 | 63 | 219 | 0.0 | 2.0 | 0.01 | 0.01 | 0.01 | 85 | 1006.5 |
| 20260506111400 | 63 | 219 | 1.0 | 2.0 | 0.01 | 0.01 | 0.01 | 84 | 1006.5 |
| 20260506111301 | 63 | 219 | 0.0 | 2.0 | 0.00 | 0.00 | 0.00 | 84 | 1006.5 |
| 20260506111201 | 63 | 219 | 0.0 | 2.0 | 0.00 | 0.00 | 0.00 | 84 | 1006.5 |
| 20260506111100 | 64 | 219 | 1.0 | 2.0 | 0.00 | 0.00 | 0.00 | 84 | 1006.4 |
| 20260506110802 | 64 | 219 | 1.0 | 2.0 | 0.00 | 0.00 | 0.00 | 83 | 1006.4 |
| 20260506110701 | 64 | 219 | 0.0 | 2.0 | 0.00 | 0.00 | 0.00 | 83 | 1006.4 |
| 20260506110601 | 64 | 219 | 0.0 | 4.0 | 0.00 | 0.00 | 0.00 | 82 | 1006.4 |
| 20260506110506 | 64 | 219 | 0.0 | 5.0 | 0.00 | 0.00 | 0.00 | 82 | 1006.3 |
| 20260506110401 | 64 | 219 | 0.0 | 5.0 | 0.00 | 0.00 | 0.00 | 81 | 1006.3 |
| 20260506110301 | 64 | 219 | 0.0 | 5.0 | 0.00 | 0.00 | 0.00 | 81 | 1006.3 |
| 20260506110201 | 64 | 219 | 0.0 | 5.0 | 0.00 | 0.00 | 0.00 | 81 | 1006.3 |
| 20260506105902 | 65 | 219 | 1.0 | 5.0 | 0.00 | 0.00 | 0.00 | 79 | 1006.3 |
| 20260506105801 | 65 | 219 | 0.0 | 5.0 | 0.00 | 0.00 | 0.00 | 79 | 1006.3 |
| 20260506105601 | 65 | 279 | 2.0 | 4.0 | 0.00 | 0.00 | 0.00 | 79 | 1006.2 |
| 20260506105505 | 65 | 94 | 2.0 | 4.0 | 0.00 | 0.00 | 0.00 | 78 | 1006.2 |
| 20260506105304 | 65 | 213 | 0.0 | 3.0 | 0.00 | 0.00 | 0.00 | 78 | 1006.2 |
| 20260506105201 | 65 | 213 | 0.0 | 3.0 | 0.00 | 0.00 | 0.00 | 77 | 1006.2 |
| 20260506105100 | 65 | 213 | 1.0 | 6.0 | 0.00 | 0.00 | 0.00 | 77 | 1006.2 |
| 20260506104901 | 65 | 213 | 1.0 | 6.0 | 0.00 | 0.00 | 0.00 | 76 | 1006.1 |
| 20260506104801 | 65 | 213 | 2.0 | 6.0 | 0.00 | 0.00 | 0.00 | 76 | 1006.1 |
| 20260506104702 | 65 | 271 | 1.0 | 6.0 | 0.00 | 0.00 | 0.00 | 76 | 1006.2 |
| 20260506104601 | 65 | 271 | 0.0 | 6.0 | 0.00 | 0.00 | 0.00 | 76 | 1006.1 |
| 20260506104401 | 65 | 293 | 1.0 | 6.0 | 0.00 | 0.00 | 0.00 | 75 | 1006.0 |
| 20260506104302 | 65 | 212 | 0.0 | 6.0 | 0.00 | 0.00 | 0.00 | 76 | 1006.0 |
| 20260506104101 | 65 | 219 | 1.0 | 4.0 | 0.00 | 0.00 | 0.00 | 76 | 1006.0 |
| 20260506104005 | 65 | 219 | 4.0 | 4.0 | 0.00 | 0.00 | 0.00 | 76 | 1006.0 |
| 20260506103801 | 65 | 219 | 1.0 | 3.0 | 0.00 | 0.00 | 0.00 | 76 | 1006.0 |
| 20260506103701 | 65 | 150 | 1.0 | 3.0 | 0.00 | 0.00 | 0.00 | 76 | 1006.0 |
| 20260506103601 | 65 | 150 | 0.0 | 3.0 | 0.00 | 0.00 | 0.00 | 76 | 1006.0 |
| 20260506103505 | 65 | 150 | 1.0 | 3.0 | 0.00 | 0.00 | 0.00 | 75 | 1005.9 |
| 20260506103400 | 65 | 150 | 0.0 | 3.0 | 0.00 | 0.00 | 0.00 | 75 | 1005.9 |
| 20260506103302 | 65 | 149 | 0.0 | 3.0 | 0.00 | 0.00 | 0.00 | 76 | 1005.9 |
| 20260506102900 | 65 | 129 | 0.0 | 5.0 | 0.00 | 0.00 | 0.00 | 76 | 1005.9 |
| 20260506102801 | 65 | 129 | 0.0 | 5.0 | 0.00 | 0.00 | 0.00 | 76 | 1005.9 |
| 20260506102700 | 65 | 129 | 0.0 | 5.0 | 0.00 | 0.00 | 0.00 | 76 | 1005.9 |
| 20260506102601 | 65 | 129 | 0.0 | 5.0 | 0.00 | 0.00 | 0.00 | 75 | 1005.9 |
| 20260506102401 | 65 | 129 | 0.0 | 5.0 | 0.00 | 0.00 | 0.00 | 75 | 1005.9 |
| 20260506102305 | 65 | 129 | 0.0 | 5.0 | 0.00 | 0.00 | 0.00 | 75 | 1005.8 |
| 20260506102202 | 65 | 129 | 1.0 | 5.0 | 0.00 | 0.00 | 0.00 | 75 | 1005.7 |
| 20260506102100 | 65 | 129 | 2.0 | 5.0 | 0.00 | 0.00 | 0.00 | 75 | 1005.7 |
| 20260506102004 | 65 | 128 | 5.0 | 6.0 | 0.00 | 0.00 | 0.00 | 75 | 1005.7 |
| 20260506101900 | 65 | 207 | 0.0 | 3.0 | 0.00 | 0.00 | 0.00 | 75 | 1005.7 |
| 20260506101801 | 65 | 207 | 0.0 | 3.0 | 0.00 | 0.00 | 0.00 | 75 | 1005.7 |
| 20260506101701 | 65 | 206 | 0.0 | 5.0 | 0.00 | 0.00 | 0.00 | 75 | 1005.7 |
| 20260506101601 | 65 | 207 | 0.0 | 5.0 | 0.00 | 0.00 | 0.00 | 75 | 1005.7 |
| 20260506101505 | 65 | 207 | 0.0 | 5.0 | 0.00 | 0.00 | 0.00 | 74 | 1005.7 |
| 20260506101402 | 65 | 207 | 1.0 | 5.0 | 0.00 | 0.00 | 0.00 | 75 | 1005.8 |
| 20260506101200 | 65 | 206 | 1.0 | 5.0 | 0.00 | 0.00 | 0.00 | 75 | 1005.7 |
| 20260506101004 | 65 | 206 | 1.0 | 5.0 | 0.00 | 0.00 | 0.00 | 75 | 1005.7 |
| 20260506100901 | 65 | 207 | 1.0 | 5.0 | 0.00 | 0.00 | 0.00 | 74 | 1005.7 |
| 20260506100801 | 65 | 205 | 1.0 | 5.0 | 0.00 | 0.00 | 0.00 | 75 | 1005.7 |
| 20260506100701 | 66 | 205 | 3.0 | 5.0 | 0.00 | 0.00 | 0.00 | 74 | 1005.7 |
| 20260506100602 | 66 | 310 | 0.0 | 4.0 | 0.00 | 0.00 | 0.00 | 74 | 1005.7 |
| 20260506100506 | 66 | 311 | 1.0 | 4.0 | 0.00 | 0.00 | 0.00 | 74 | 1005.6 |
| 20260506100400 | 66 | 272 | 2.0 | 2.0 | 0.00 | 0.00 | 0.00 | 74 | 1005.7 |
| 20260506100301 | 66 | 272 | 0.0 | 1.0 | 0.00 | 0.00 | 0.00 | 74 | 1005.7 |
| 20260506095700 | 66 | 271 | 0.0 | 4.0 | 0.00 | 0.00 | 0.00 | 74 | 1005.6 |
| 20260506095601 | 66 | 271 | 0.0 | 4.0 | 0.00 | 0.00 | 0.00 | 74 | 1005.6 |
| 20260506095505 | 66 | 271 | 1.0 | 4.0 | 0.00 | 0.00 | 0.00 | 73 | 1005.6 |
| 20260506095401 | 66 | 271 | 1.0 | 4.0 | 0.00 | 0.00 | 0.00 | 74 | 1005.6 |
| 20260506095201 | 66 | 271 | 0.0 | 4.0 | 0.00 | 0.00 | 0.00 | 73 | 1005.6 |
| 20260506095100 | 66 | 271 | 0.0 | 4.0 | 0.00 | 0.00 | 0.00 | 73 | 1005.6 |
| 20260506095005 | 66 | 44 | 2.0 | 3.0 | 0.00 | 0.00 | 0.00 | 73 | 1005.6 |
| 20260506094900 | 66 | 44 | 0.0 | 3.0 | 0.00 | 0.00 | 0.00 | 73 | 1005.5 |
| 20260506094802 | 66 | 44 | 0.0 | 3.0 | 0.00 | 0.00 | 0.00 | 73 | 1005.5 |
| 20260506094700 | 66 | 44 | 1.0 | 7.0 | 0.00 | 0.00 | 0.00 | 73 | 1005.4 |
| 20260506094601 | 66 | 44 | 0.0 | 10.0 | 0.00 | 0.00 | 0.00 | 73 | 1005.5 |
| 20260506094505 | 66 | 44 | 2.0 | 10.0 | 0.00 | 0.00 | 0.00 | 73 | 1005.5 |
| 20260506094301 | 66 | 265 | 0.0 | 10.0 | 0.00 | 0.00 | 0.00 | 73 | 1005.5 |
| 20260506094202 | 66 | 265 | 1.0 | 10.0 | 0.00 | 0.00 | 0.00 | 72 | 1005.4 |
| 20260506094101 | 66 | 265 | 0.0 | 10.0 | 0.00 | 0.00 | 0.00 | 72 | 1005.4 |
| 20260506093901 | 66 | 265 | 1.0 | 10.0 | 0.00 | 0.00 | 0.00 | 72 | 1005.5 |
| 20260506093802 | 66 | 226 | 2.0 | 10.0 | 0.00 | 0.00 | 0.00 | 72 | 1005.5 |
| 20260506093702 | 66 | 174 | 5.0 | 10.0 | 0.00 | 0.00 | 0.00 | 71 | 1005.5 |
| 20260506093601 | 66 | 173 | 2.0 | 4.0 | 0.00 | 0.00 | 0.00 | 72 | 1005.5 |
| 20260506093400 | 66 | 238 | 1.0 | 4.0 | 0.00 | 0.00 | 0.00 | 72 | 1005.6 |
| 20260506093300 | 66 | 238 | 1.0 | 4.0 | 0.00 | 0.00 | 0.00 | 72 | 1005.5 |
| 20260506093200 | 66 | 238 | 0.0 | 4.0 | 0.00 | 0.00 | 0.00 | 71 | 1005.5 |
| 20260506093100 | 66 | 238 | 2.0 | 4.0 | 0.00 | 0.00 | 0.00 | 71 | 1005.5 |
| 20260506092902 | 66 | 120 | 0.0 | 8.0 | 0.00 | 0.00 | 0.00 | 71 | 1005.6 |
| 20260506092802 | 67 | 120 | 0.0 | 8.0 | 0.00 | 0.00 | 0.00 | 71 | 1005.6 |
| 20260506092701 | 67 | 120 | 1.0 | 8.0 | 0.00 | 0.00 | 0.00 | 71 | 1005.6 |
| 20260506092601 | 67 | 120 | 1.0 | 8.0 | 0.00 | 0.00 | 0.00 | 71 | 1005.7 |
| 20260506092505 | 67 | 195 | 1.0 | 8.0 | 0.00 | 0.00 | 0.00 | 72 | 1005.6 |
| 20260506092401 | 67 | 195 | 0.0 | 8.0 | 0.00 | 0.00 | 0.00 | 71 | 1005.6 |
| 20260506092301 | 67 | 194 | 2.0 | 8.0 | 0.00 | 0.00 | 0.00 | 71 | 1005.7 |
| 20260506092202 | 67 | 194 | 2.0 | 8.0 | 0.00 | 0.00 | 0.00 | 71 | 1005.7 |
| 20260506092100 | 67 | 194 | 2.0 | 8.0 | 0.00 | 0.00 | 0.00 | 71 | 1005.7 |
| 20260506092006 | 67 | 194 | 3.0 | 8.0 | 0.00 | 0.00 | 0.00 | 71 | 1005.8 |
| 20260506091902 | 66 | 224 | 3.0 | 8.0 | 0.00 | 0.00 | 0.00 | 71 | 1005.7 |
| 20260506091801 | 66 | 234 | 1.0 | 8.0 | 0.00 | 0.00 | 0.00 | 71 | 1005.7 |
| 20260506091702 | 66 | 275 | 3.0 | 8.0 | 0.00 | 0.00 | 0.00 | 72 | 1005.8 |
| 20260506091601 | 67 | 224 | 0.0 | 5.0 | 0.00 | 0.00 | 0.00 | 71 | 1005.7 |
| 20260506091506 | 67 | 224 | 0.0 | 5.0 | 0.00 | 0.00 | 0.00 | 71 | 1005.7 |
| 20260506091302 | 67 | 224 | 3.0 | 5.0 | 0.00 | 0.00 | 0.00 | 70 | 1005.7 |
| 20260506091201 | 67 | 290 | 5.0 | 5.0 | 0.00 | 0.00 | 0.00 | 71 | 1005.7 |
| 20260506090801 | 67 | 254 | 2.0 | 7.0 | 0.00 | 0.00 | 0.00 | 71 | 1005.8 |
| 20260506090700 | 67 | 254 | 0.0 | 7.0 | 0.00 | 0.00 | 0.00 | 71 | 1005.9 |
| 20260506090602 | 66 | 259 | 2.0 | 7.0 | 0.00 | 0.00 | 0.00 | 71 | 1005.9 |
| 20260506090505 | 66 | 258 | 1.0 | 7.0 | 0.00 | 0.00 | 0.00 | 71 | 1005.9 |
| 20260506090401 | 66 | 258 | 0.0 | 7.0 | 0.00 | 0.00 | 0.00 | 71 | 1005.8 |
| 20260506090300 | 66 | 258 | 1.0 | 7.0 | 0.00 | 0.00 | 0.00 | 71 | 1005.8 |
| 20260506090200 | 66 | 202 | 0.0 | 7.0 | 0.00 | 0.00 | 0.00 | 71 | 1005.8 |
| 20260506090007 | 66 | 202 | 2.0 | 7.0 | 0.00 | 0.00 | 0.00 | 71 | 1005.9 |
| 20260506085901 | 66 | 202 | 0.0 | 8.0 | 0.00 | 0.00 | 0.00 | 71 | 1006.0 |
| 20260506085801 | 66 | 226 | 0.0 | 3.0 | 0.00 | 0.00 | 0.00 | 71 | 1005.9 |
| 20260506085701 | 66 | 226 | 1.0 | 3.0 | 0.00 | 0.00 | 0.00 | 71 | 1005.9 |
| 20260506085600 | 66 | 226 | 1.0 | 3.0 | 0.00 | 0.00 | 0.00 | 71 | 1005.9 |
| 20260506085505 | 66 | 226 | 2.0 | 3.0 | 0.00 | 0.00 | 0.00 | 72 | 1005.9 |
| 20260506085400 | 66 | 226 | 0.0 | 3.0 | 0.00 | 0.00 | 0.00 | 72 | 1005.9 |
| 20260506085300 | 66 | 226 | 1.0 | 3.0 | 0.00 | 0.00 | 0.00 | 72 | 1005.9 |
| 20260506085200 | 66 | 226 | 2.0 | 3.0 | 0.00 | 0.00 | 0.00 | 71 | 1006.0 |
| 20260506085102 | 66 | 226 | 2.0 | 3.0 | 0.00 | 0.00 | 0.00 | 71 | 1005.9 |
| 20260506085004 | 66 | 178 | 1.0 | 3.0 | 0.00 | 0.00 | 0.00 | 72 | 1005.9 |
| 20260506084901 | 66 | 178 | 1.0 | 5.0 | 0.00 | 0.00 | 0.00 | 71 | 1005.9 |
| 20260506084801 | 66 | 178 | 0.0 | 5.0 | 0.00 | 0.00 | 0.00 | 72 | 1006.0 |
| 20260506084701 | 66 | 178 | 2.0 | 5.0 | 0.00 | 0.00 | 0.00 | 72 | 1006.1 |
| 20260506084507 | 66 | 178 | 0.0 | 5.0 | 0.00 | 0.00 | 0.00 | 72 | 1006.0 |
| 20260506084402 | 66 | 178 | 1.0 | 5.0 | 0.00 | 0.00 | 0.00 | 72 | 1005.9 |
| 20260506084301 | 66 | 178 | 1.0 | 5.0 | 0.00 | 0.00 | 0.00 | 71 | 1005.9 |
| 20260506084201 | 66 | 178 | 0.0 | 5.0 | 0.00 | 0.00 | 0.00 | 71 | 1005.9 |
| 20260506083901 | 66 | 154 | 3.0 | 3.0 | 0.00 | 0.00 | 0.00 | 71 | 1005.9 |
| 20260506083802 | 66 | 281 | 1.0 | 3.0 | 0.00 | 0.00 | 0.00 | 72 | 1006.0 |
| 20260506083701 | 66 | 281 | 2.0 | 2.0 | 0.00 | 0.00 | 0.00 | 72 | 1006.0 |
| 20260506083600 | 66 | 281 | 0.0 | 2.0 | 0.00 | 0.00 | 0.00 | 72 | 1006.0 |
| 20260506083505 | 66 | 281 | 0.0 | 2.0 | 0.00 | 0.00 | 0.00 | 71 | 1005.9 |
| 20260506083401 | 66 | 281 | 1.0 | 3.0 | 0.00 | 0.00 | 0.00 | 71 | 1005.9 |
| 20260506083300 | 66 | 281 | 0.0 | 3.0 | 0.00 | 0.00 | 0.00 | 72 | 1005.9 |
| 20260506083201 | 66 | 281 | 1.0 | 3.0 | 0.00 | 0.00 | 0.00 | 71 | 1005.9 |
| 20260506083100 | 66 | 281 | 1.0 | 3.0 | 0.00 | 0.00 | 0.00 | 71 | 1005.8 |
| 20260506082902 | 66 | 281 | 2.0 | 3.0 | 0.00 | 0.00 | 0.00 | 72 | 1005.9 |
| 20260506082801 | 66 | 281 | 0.0 | 3.0 | 0.00 | 0.00 | 0.00 | 72 | 1005.9 |
| 20260506082701 | 66 | 281 | 0.0 | 3.0 | 0.00 | 0.00 | 0.00 | 71 | 1005.9 |
| 20260506082602 | 66 | 281 | 0.0 | 3.0 | 0.00 | 0.00 | 0.00 | 71 | 1005.9 |
| 20260506082401 | 66 | 228 | 1.0 | 3.0 | 0.00 | 0.00 | 0.00 | 72 | 1005.9 |
| 20260506082304 | 66 | 228 | 3.0 | 3.0 | 0.00 | 0.00 | 0.00 | 72 | 1005.9 |
| 20260506082101 | 66 | 228 | 0.0 | 3.0 | 0.00 | 0.00 | 0.00 | 72 | 1005.9 |
| 20260506082004 | 66 | 228 | 0.0 | 3.0 | 0.00 | 0.00 | 0.00 | 72 | 1005.8 |
| 20260506081801 | 66 | 228 | 0.0 | 3.0 | 0.00 | 0.00 | 0.00 | 72 | 1005.8 |
| 20260506081703 | 66 | 228 | 1.0 | 3.0 | 0.00 | 0.00 | 0.00 | 73 | 1005.7 |
| 20260506081504 | 66 | 225 | 0.0 | 3.0 | 0.00 | 0.00 | 0.00 | 72 | 1005.9 |
| 20260506081400 | 66 | 225 | 1.0 | 3.0 | 0.00 | 0.00 | 0.00 | 71 | 1005.9 |
| 20260506081300 | 66 | 225 | 3.0 | 3.0 | 0.00 | 0.00 | 0.00 | 71 | 1006.0 |
| 20260506081201 | 66 | 223 | 0.0 | 2.0 | 0.00 | 0.00 | 0.00 | 71 | 1005.9 |
| 20260506081101 | 66 | 223 | 0.0 | 2.0 | 0.00 | 0.00 | 0.00 | 71 | 1005.9 |
| 20260506081005 | 66 | 223 | 0.0 | 2.0 | 0.00 | 0.00 | 0.00 | 72 | 1005.9 |
| 20260506080901 | 66 | 223 | 0.0 | 2.0 | 0.00 | 0.00 | 0.00 | 71 | 1005.9 |
| 20260506080801 | 66 | 223 | 1.0 | 2.0 | 0.00 | 0.00 | 0.00 | 71 | 1005.9 |
| 20260506080701 | 66 | 223 | 1.0 | 2.0 | 0.00 | 0.00 | 0.00 | 72 | 1005.9 |
| 20260506080601 | 66 | 223 | 0.0 | 2.0 | 0.00 | 0.00 | 0.00 | 71 | 1005.9 |
| 20260506080504 | 66 | 223 | 1.0 | 2.0 | 0.00 | 0.00 | 0.00 | 72 | 1005.9 |
| 20260506080401 | 66 | 223 | 1.0 | 2.0 | 0.00 | 0.00 | 0.00 | 71 | 1005.9 |
| 20260506080301 | 66 | 223 | 1.0 | 2.0 | 0.00 | 0.00 | 0.00 | 71 | 1005.9 |
| 20260506080201 | 66 | 223 | 0.0 | 2.0 | 0.00 | 0.00 | 0.00 | 70 | 1005.8 |
| 20260506073505 | 66 | 204 | 1.0 | 3.0 | 0.00 | 0.00 | 0.00 | 69 | 1005.9 |
| 20260506073301 | 66 | 205 | 0.0 | 3.0 | 0.00 | 0.00 | 0.00 | 70 | 1005.9 |
| 20260506073200 | 66 | 205 | 0.0 | 3.0 | 0.00 | 0.00 | 0.00 | 70 | 1005.9 |
| 20260506073101 | 66 | 205 | 0.0 | 3.0 | 0.00 | 0.00 | 0.00 | 70 | 1006.0 |
| 20260506073005 | 66 | 205 | 0.0 | 3.0 | 0.00 | 0.00 | 0.00 | 69 | 1006.0 |
| 20260506072902 | 66 | 205 | 1.0 | 3.0 | 0.00 | 0.00 | 0.00 | 69 | 1006.0 |
| 20260506072800 | 66 | 205 | 0.0 | 5.0 | 0.00 | 0.00 | 0.00 | 69 | 1006.0 |
| 20260506072704 | 66 | 205 | 1.0 | 5.0 | 0.00 | 0.00 | 0.00 | 70 | 1006.0 |
| 20260506072602 | 66 | 205 | 0.0 | 5.0 | 0.00 | 0.00 | 0.00 | 70 | 1006.0 |
| 20260506072505 | 66 | 205 | 1.0 | 5.0 | 0.00 | 0.00 | 0.00 | 70 | 1006.0 |
| 20260506072401 | 66 | 205 | 1.0 | 5.0 | 0.00 | 0.00 | 0.00 | 70 | 1006.0 |
| 20260506072305 | 66 | 205 | 1.0 | 5.0 | 0.00 | 0.00 | 0.00 | 70 | 1006.0 |
| 20260506072200 | 66 | 205 | 0.0 | 5.0 | 0.00 | 0.00 | 0.00 | 70 | 1006.0 |
| 20260506072102 | 66 | 205 | 1.0 | 5.0 | 0.00 | 0.00 | 0.00 | 70 | 1006.0 |
| 20260506072005 | 66 | 205 | 1.0 | 6.0 | 0.00 | 0.00 | 0.00 | 71 | 1006.0 |
| 20260506071901 | 66 | 205 | 1.0 | 6.0 | 0.00 | 0.00 | 0.00 | 70 | 1006.0 |
| 20260506071802 | 65 | 140 | 3.0 | 6.0 | 0.00 | 0.00 | 0.00 | 70 | 1006.1 |
| 20260506071700 | 65 | 246 | 1.0 | 6.0 | 0.00 | 0.00 | 0.00 | 71 | 1006.0 |
| 20260506071600 | 65 | 245 | 0.0 | 6.0 | 0.00 | 0.00 | 0.00 | 71 | 1006.1 |
| 20260506071506 | 65 | 245 | 0.0 | 6.0 | 0.00 | 0.00 | 0.00 | 71 | 1006.1 |
| 20260506071401 | 65 | 245 | 0.0 | 6.0 | 0.00 | 0.00 | 0.00 | 72 | 1006.0 |
| 20260506071300 | 65 | 245 | 0.0 | 6.0 | 0.00 | 0.00 | 0.00 | 71 | 1006.1 |
| 20260506071200 | 65 | 245 | 0.0 | 6.0 | 0.00 | 0.00 | 0.00 | 72 | 1006.0 |
| 20260506071102 | 65 | 268 | 2.0 | 6.0 | 0.00 | 0.00 | 0.00 | 71 | 1006.1 |
| 20260506071007 | 65 | 98 | 0.0 | 3.0 | 0.00 | 0.00 | 0.00 | 71 | 1006.1 |
| 20260506070900 | 65 | 98 | 0.0 | 3.0 | 0.00 | 0.00 | 0.00 | 72 | 1006.1 |
| 20260506070801 | 65 | 98 | 1.0 | 3.0 | 0.00 | 0.00 | 0.00 | 70 | 1006.0 |
| 20260506070702 | 65 | 98 | 2.0 | 3.0 | 0.00 | 0.00 | 0.00 | 70 | 1006.1 |
| 20260506070601 | 65 | 98 | 0.0 | 2.0 | 0.00 | 0.00 | 0.00 | 71 | 1006.1 |
| 20260506070505 | 65 | 98 | 0.0 | 2.0 | 0.00 | 0.00 | 0.00 | 70 | 1006.1 |
| 20260506070402 | 65 | 98 | 1.0 | 2.0 | 0.00 | 0.00 | 0.00 | 70 | 1006.1 |
| 20260506070301 | 65 | 98 | 0.0 | 2.0 | 0.00 | 0.00 | 0.00 | 70 | 1006.1 |
| 20260506070202 | 65 | 98 | 0.0 | 2.0 | 0.00 | 0.00 | 0.00 | 71 | 1006.2 |
| 20260506062505 | 64 | 140 | 0.0 | 6.0 | 0.00 | 0.00 | 0.00 | 69 | 1006.6 |
| 20260506062401 | 64 | 140 | 1.0 | 6.0 | 0.00 | 0.00 | 0.00 | 71 | 1006.6 |
| 20260506062305 | 64 | 140 | 2.0 | 6.0 | 0.00 | 0.00 | 0.00 | 71 | 1006.6 |
| 20260506062201 | 64 | 140 | 2.0 | 6.0 | 0.00 | 0.00 | 0.00 | 69 | 1006.7 |
| 20260506062101 | 63 | 140 | 1.0 | 6.0 | 0.00 | 0.00 | 0.00 | 69 | 1006.7 |
| 20260506062006 | 63 | 183 | 0.0 | 2.0 | 0.00 | 0.00 | 0.00 | 72 | 1006.7 |
| 20260506061901 | 63 | 183 | 0.0 | 2.0 | 0.00 | 0.00 | 0.00 | 69 | 1006.7 |
| 20260506061801 | 63 | 183 | 0.0 | 2.0 | 0.00 | 0.00 | 0.00 | 69 | 1006.7 |
| 20260506061702 | 63 | 183 | 0.0 | 2.0 | 0.00 | 0.00 | 0.00 | 70 | 1006.8 |
| 20260506061401 | 63 | 183 | 0.0 | 2.0 | 0.00 | 0.00 | 0.00 | 69 | 1006.9 |
| 20260506061302 | 63 | 183 | 0.0 | 2.0 | 0.00 | 0.00 | 0.00 | 70 | 1006.8 |
| 20260506061200 | 63 | 183 | 0.0 | 2.0 | 0.00 | 0.00 | 0.00 | 70 | 1006.8 |
| 20260506061102 | 63 | 183 | 0.0 | 2.0 | 0.00 | 0.00 | 0.00 | 71 | 1006.8 |
| 20260506061005 | 63 | 183 | 2.0 | 2.0 | 0.00 | 0.00 | 0.00 | 71 | 1006.8 |
| 20260506060901 | 63 | 183 | 0.0 | 0.0 | 0.00 | 0.00 | 0.00 | 69 | 1006.8 |
| 20260506060802 | 63 | 183 | 0.0 | 0.0 | 0.00 | 0.00 | 0.00 | 69 | 1006.8 |
| 20260506060601 | 63 | 183 | 0.0 | 0.0 | 0.00 | 0.00 | 0.00 | 69 | 1006.8 |
| 20260506060505 | 63 | 183 | 0.0 | 0.0 | 0.00 | 0.00 | 0.00 | 68 | 1006.8 |
| 20260506060402 | 63 | 183 | 0.0 | 0.0 | 0.00 | 0.00 | 0.00 | 68 | 1006.8 |
| 20260506051401 | 63 | 207 | 0.0 | 3.0 | 0.00 | 0.00 | 0.00 | 73 | 1007.3 |
| 20260506051300 | 63 | 207 | 0.0 | 3.0 | 0.00 | 0.00 | 0.00 | 72 | 1007.3 |
| 20260506051201 | 63 | 207 | 1.0 | 1.0 | 0.00 | 0.00 | 0.00 | 69 | 1007.3 |
| 20260506051102 | 63 | 207 | 0.0 | 1.0 | 0.00 | 0.00 | 0.00 | 68 | 1007.3 |
| 20260506050901 | 63 | 207 | 0.0 | 1.0 | 0.00 | 0.00 | 0.00 | 68 | 1007.3 |
| 20260506050800 | 63 | 207 | 0.0 | 2.0 | 0.00 | 0.00 | 0.00 | 69 | 1007.3 |
| 20260506050702 | 63 | 207 | 0.0 | 2.0 | 0.00 | 0.00 | 0.00 | 71 | 1007.4 |
| 20260506050601 | 63 | 207 | 0.0 | 2.0 | 0.00 | 0.00 | 0.00 | 71 | 1007.4 |
| 20260506050505 | 63 | 207 | 0.0 | 2.0 | 0.00 | 0.00 | 0.00 | 71 | 1007.4 |
| 20260506050402 | 63 | 207 | 0.0 | 2.0 | 0.00 | 0.00 | 0.00 | 71 | 1007.4 |
| 20260506050300 | 63 | 207 | 0.0 | 2.0 | 0.00 | 0.00 | 0.00 | 69 | 1007.4 |
| 20260506050200 | 63 | 207 | 0.0 | 2.0 | 0.00 | 0.00 | 0.00 | 69 | 1007.4 |
| 20260506050106 | 63 | 207 | 0.0 | 2.0 | 0.00 | 0.00 | 0.00 | 71 | 1007.4 |
| 20260506045102 | 63 | 207 | 0.0 | 1.0 | 0.00 | 0.00 | 0.00 | 69 | 1007.3 |
| 20260506045007 | 63 | 207 | 0.0 | 1.0 | 0.00 | 0.00 | 0.00 | 70 | 1007.3 |
| 20260506044901 | 63 | 207 | 0.0 | 1.0 | 0.00 | 0.00 | 0.00 | 69 | 1007.2 |
| 20260506044800 | 63 | 207 | 0.0 | 1.0 | 0.00 | 0.00 | 0.00 | 69 | 1007.3 |
| 20260506044702 | 63 | 207 | 0.0 | 1.0 | 0.00 | 0.00 | 0.00 | 68 | 1007.3 |
| 20260506044601 | 62 | 207 | 0.0 | 1.0 | 0.00 | 0.00 | 0.00 | 69 | 1007.2 |
| 20260506044505 | 63 | 207 | 0.0 | 1.0 | 0.00 | 0.00 | 0.00 | 69 | 1007.3 |
| 20260506044401 | 63 | 207 | 0.0 | 1.0 | 0.00 | 0.00 | 0.00 | 70 | 1007.3 |
| 20260506044301 | 63 | 207 | 0.0 | 1.0 | 0.00 | 0.00 | 0.00 | 71 | 1007.3 |
| 20260506044200 | 63 | 207 | 0.0 | 1.0 | 0.00 | 0.00 | 0.00 | 69 | 1007.2 |
| 20260506044101 | 63 | 207 | 0.0 | 1.0 | 0.00 | 0.00 | 0.00 | 69 | 1007.2 |
| 20260506043902 | 62 | 207 | 0.0 | 1.0 | 0.00 | 0.00 | 0.00 | 69 | 1007.2 |
| 20260506043800 | 62 | 207 | 0.0 | 0.0 | 0.00 | 0.00 | 0.00 | 69 | 1007.2 |
| 20260506043700 | 62 | 207 | 0.0 | 0.0 | 0.00 | 0.00 | 0.00 | 70 | 1007.3 |
| 20260506043601 | 62 | 207 | 0.0 | 0.0 | 0.00 | 0.00 | 0.00 | 68 | 1007.3 |
| 20260506043400 | 62 | 207 | 0.0 | 0.0 | 0.00 | 0.00 | 0.00 | 69 | 1007.3 |
| 20260506043202 | 62 | 207 | 0.0 | 0.0 | 0.00 | 0.00 | 0.00 | 69 | 1007.2 |
| 20260506043100 | 62 | 207 | 0.0 | 0.0 | 0.00 | 0.00 | 0.00 | 70 | 1007.2 |
| 20260506043005 | 62 | 207 | 0.0 | 1.0 | 0.00 | 0.00 | 0.00 | 69 | 1007.2 |
| 20260506042902 | 62 | 207 | 0.0 | 2.0 | 0.00 | 0.00 | 0.00 | 70 | 1007.2 |
| 20260506042801 | 62 | 207 | 0.0 | 2.0 | 0.00 | 0.00 | 0.00 | 70 | 1007.2 |
| 20260506042701 | 62 | 207 | 0.0 | 2.0 | 0.00 | 0.00 | 0.00 | 70 | 1007.3 |
| 20260506042602 | 62 | 207 | 0.0 | 2.0 | 0.00 | 0.00 | 0.00 | 70 | 1007.2 |
| 20260506042505 | 62 | 207 | 0.0 | 2.0 | 0.00 | 0.00 | 0.00 | 71 | 1007.2 |
| 20260506042402 | 62 | 207 | 0.0 | 2.0 | 0.00 | 0.00 | 0.00 | 70 | 1007.2 |
| 20260506042201 | 62 | 207 | 0.0 | 2.0 | 0.00 | 0.00 | 0.00 | 70 | 1007.2 |
| 20260506041901 | 62 | 207 | 1.0 | 2.0 | 0.00 | 0.00 | 0.00 | 69 | 1007.1 |
| 20260506041801 | 62 | 207 | 0.0 | 2.0 | 0.00 | 0.00 | 0.00 | 70 | 1007.1 |
| 20260506041601 | 62 | 207 | 0.0 | 2.0 | 0.00 | 0.00 | 0.00 | 70 | 1007.0 |
| 20260506041505 | 62 | 207 | 0.0 | 2.0 | 0.00 | 0.00 | 0.00 | 70 | 1007.1 |
| 20260506041401 | 62 | 207 | 0.0 | 2.0 | 0.00 | 0.00 | 0.00 | 71 | 1007.1 |
| 20260506041301 | 62 | 207 | 0.0 | 2.0 | 0.00 | 0.00 | 0.00 | 71 | 1007.1 |
| 20260506041200 | 62 | 207 | 0.0 | 3.0 | 0.00 | 0.00 | 0.00 | 71 | 1007.0 |
| 20260506041101 | 62 | 207 | 0.0 | 3.0 | 0.00 | 0.00 | 0.00 | 71 | 1007.0 |
| 20260506041005 | 62 | 207 | 0.0 | 3.0 | 0.00 | 0.00 | 0.00 | 72 | 1007.1 |
| 20260506040900 | 62 | 207 | 0.0 | 3.0 | 0.00 | 0.00 | 0.00 | 71 | 1007.0 |
| 20260506040801 | 62 | 207 | 0.0 | 3.0 | 0.00 | 0.00 | 0.00 | 71 | 1007.1 |
| 20260506040702 | 62 | 207 | 0.0 | 3.0 | 0.00 | 0.00 | 0.00 | 72 | 1007.0 |
| 20260506040602 | 62 | 207 | 0.0 | 3.0 | 0.00 | 0.00 | 0.00 | 71 | 1007.0 |
| 20260506040504 | 61 | 207 | 0.0 | 3.0 | 0.00 | 0.00 | 0.00 | 71 | 1007.0 |
| 20260506040401 | 61 | 207 | 0.0 | 3.0 | 0.00 | 0.00 | 0.00 | 71 | 1007.0 |
| 20260506040301 | 61 | 207 | 0.0 | 3.0 | 0.00 | 0.00 | 0.00 | 71 | 1007.0 |
| 20260506040158 | 61 | 207 | 2.0 | 2.0 | 0.00 | 0.00 | 0.00 | 72 | 1007.0 |
| 20260506040059 | 61 | 207 | 0.0 | 2.0 | 0.00 | 0.00 | 0.00 | 72 | 1007.0 |
| 20260506040004 | 61 | 207 | 1.0 | 2.0 | 0.00 | 0.00 | 0.00 | 73 | 1007.1 |
| 20260506035900 | 61 | 207 | 1.0 | 2.0 | 0.00 | 0.00 | 0.00 | 71 | 1007.0 |
| 20260506035800 | 61 | 207 | 2.0 | 2.0 | 0.00 | 0.00 | 0.00 | 72 | 1007.0 |
| 20260506035659 | 61 | 207 | 0.0 | 2.0 | 0.00 | 0.00 | 0.00 | 72 | 1007.1 |
| 20260506035559 | 61 | 207 | 0.0 | 2.0 | 0.00 | 0.00 | 0.00 | 72 | 1007.1 |
| 20260506035502 | 61 | 207 | 1.0 | 2.0 | 0.00 | 0.00 | 0.00 | 72 | 1007.1 |
| 20260506035259 | 60 | 207 | 0.0 | 2.0 | 0.00 | 0.00 | 0.00 | 72 | 1007.1 |
| 20260506035200 | 60 | 207 | 0.0 | 2.0 | 0.00 | 0.00 | 0.00 | 73 | 1007.1 |
| 20260506035100 | 60 | 207 | 0.0 | 2.0 | 0.00 | 0.00 | 0.00 | 73 | 1007.2 |
| 20260506035006 | 60 | 207 | 0.0 | 2.0 | 0.00 | 0.00 | 0.00 | 73 | 1007.1 |
| 20260506034859 | 60 | 207 | 0.0 | 2.0 | 0.00 | 0.00 | 0.00 | 74 | 1007.1 |
| 20260506034559 | 60 | 207 | 0.0 | 2.0 | 0.00 | 0.00 | 0.00 | 74 | 1007.1 |
| 20260506034501 | 60 | 207 | 0.0 | 2.0 | 0.00 | 0.00 | 0.00 | 74 | 1007.1 |
| 20260506034359 | 60 | 207 | 0.0 | 2.0 | 0.00 | 0.00 | 0.00 | 74 | 1007.1 |
| 20260506034258 | 60 | 207 | 0.0 | 2.0 | 0.00 | 0.00 | 0.00 | 74 | 1007.0 |
| 20260506034159 | 60 | 207 | 0.0 | 2.0 | 0.00 | 0.00 | 0.00 | 74 | 1007.1 |
| 20260506033959 | 60 | 207 | 1.0 | 3.0 | 0.00 | 0.00 | 0.00 | 73 | 1007.1 |
| 20260506033859 | 60 | 207 | 0.0 | 3.0 | 0.00 | 0.00 | 0.00 | 74 | 1007.0 |
| 20260506033659 | 60 | 207 | 0.0 | 3.0 | 0.00 | 0.00 | 0.00 | 73 | 1007.0 |
| 20260506033559 | 60 | 207 | 0.0 | 3.0 | 0.00 | 0.00 | 0.00 | 73 | 1007.0 |
| 20260506033501 | 60 | 207 | 0.0 | 3.0 | 0.00 | 0.00 | 0.00 | 74 | 1007.1 |
| 20260506033359 | 60 | 207 | 0.0 | 3.0 | 0.00 | 0.00 | 0.00 | 73 | 1007.0 |
| 20260506033258 | 60 | 207 | 2.0 | 3.0 | 0.00 | 0.00 | 0.00 | 73 | 1007.0 |
| 20260506033159 | 60 | 207 | 0.0 | 3.0 | 0.00 | 0.00 | 0.00 | 73 | 1007.1 |
| 20260506033058 | 60 | 207 | 1.0 | 3.0 | 0.00 | 0.00 | 0.00 | 73 | 1007.0 |
| 20260506033001 | 60 | 207 | 2.0 | 3.0 | 0.00 | 0.00 | 0.00 | 73 | 1007.0 |
| 20260506032900 | 60 | 207 | 2.0 | 3.0 | 0.00 | 0.00 | 0.00 | 73 | 1007.1 |
| 20260506032759 | 60 | 207 | 2.0 | 3.0 | 0.00 | 0.00 | 0.00 | 73 | 1007.1 |
| 20260506032659 | 60 | 207 | 1.0 | 3.0 | 0.00 | 0.00 | 0.00 | 73 | 1007.1 |
| 20260506032559 | 60 | 219 | 0.0 | 3.0 | 0.00 | 0.00 | 0.00 | 73 | 1007.1 |
| 20260506032259 | 60 | 220 | 3.0 | 3.0 | 0.00 | 0.00 | 0.00 | 73 | 1007.1 |
| 20260506032159 | 60 | 220 | 1.0 | 2.0 | 0.00 | 0.00 | 0.00 | 74 | 1007.1 |
| 20260506032100 | 60 | 226 | 2.0 | 2.0 | 0.00 | 0.00 | 0.00 | 73 | 1007.1 |
| 20260506032000 | 60 | 226 | 2.0 | 2.0 | 0.00 | 0.00 | 0.00 | 73 | 1007.1 |
| 20260506031859 | 60 | 226 | 0.0 | 1.0 | 0.00 | 0.00 | 0.00 | 73 | 1007.1 |
| 20260506031759 | 61 | 226 | 0.0 | 1.0 | 0.00 | 0.00 | 0.00 | 73 | 1007.1 |
| 20260506031658 | 61 | 226 | 0.0 | 2.0 | 0.00 | 0.00 | 0.00 | 73 | 1007.2 |
| 20260506031558 | 61 | 226 | 0.0 | 2.0 | 0.00 | 0.00 | 0.00 | 73 | 1007.1 |
| 20260506031501 | 61 | 226 | 0.0 | 2.0 | 0.00 | 0.00 | 0.00 | 73 | 1007.1 |
| 20260506031400 | 61 | 226 | 0.0 | 2.0 | 0.00 | 0.00 | 0.00 | 73 | 1007.2 |
| 20260506031259 | 61 | 226 | 0.0 | 2.0 | 0.00 | 0.00 | 0.00 | 73 | 1007.1 |
| 20260506031159 | 61 | 226 | 0.0 | 2.0 | 0.00 | 0.00 | 0.00 | 72 | 1007.1 |
| 20260506031058 | 61 | 226 | 0.0 | 2.0 | 0.00 | 0.00 | 0.00 | 73 | 1007.1 |
| 20260506031000 | 61 | 226 | 0.0 | 2.0 | 0.00 | 0.00 | 0.00 | 73 | 1007.1 |
| 20260506030859 | 61 | 226 | 0.0 | 2.0 | 0.00 | 0.00 | 0.00 | 72 | 1007.1 |
| 20260506030800 | 61 | 226 | 0.0 | 2.0 | 0.00 | 0.00 | 0.00 | 72 | 1007.0 |
| 20260506030700 | 61 | 226 | 2.0 | 2.0 | 0.00 | 0.00 | 0.00 | 72 | 1007.0 |
| 20260506030600 | 61 | 226 | 0.0 | 2.0 | 0.00 | 0.00 | 0.00 | 72 | 1007.0 |
| 20260506030504 | 61 | 226 | 0.0 | 2.0 | 0.00 | 0.00 | 0.00 | 72 | 1007.0 |
| 20260506030359 | 61 | 226 | 0.0 | 2.0 | 0.00 | 0.00 | 0.00 | 72 | 1007.0 |
| 20260506030259 | 61 | 226 | 1.0 | 2.0 | 0.00 | 0.00 | 0.00 | 72 | 1007.0 |
| 20260506030158 | 61 | 226 | 2.0 | 2.0 | 0.00 | 0.00 | 0.00 | 72 | 1007.0 |
| 20260506030059 | 61 | 226 | 1.0 | 3.0 | 0.00 | 0.00 | 0.00 | 72 | 1007.0 |
| 20260506030004 | 61 | 226 | 0.0 | 3.0 | 0.00 | 0.00 | 0.00 | 72 | 1007.1 |
| 20260506025759 | 61 | 226 | 1.0 | 3.0 | 0.00 | 0.00 | 0.00 | 72 | 1007.0 |
| 20260506025500 | 61 | 226 | 2.0 | 3.0 | 0.00 | 0.00 | 0.00 | 72 | 1007.0 |
| 20260506025400 | 61 | 226 | 0.0 | 3.0 | 0.00 | 0.00 | 0.00 | 71 | 1007.1 |
| 20260506025159 | 62 | 226 | 0.0 | 3.0 | 0.00 | 0.00 | 0.00 | 71 | 1007.0 |
| 20260506025100 | 62 | 232 | 3.0 | 3.0 | 0.00 | 0.00 | 0.00 | 71 | 1007.1 |
| 20260506025001 | 62 | 233 | 0.0 | 2.0 | 0.00 | 0.00 | 0.00 | 71 | 1007.0 |
| 20260506024858 | 62 | 233 | 1.0 | 3.0 | 0.00 | 0.00 | 0.00 | 71 | 1007.1 |
| 20260506024758 | 62 | 233 | 1.0 | 3.0 | 0.00 | 0.00 | 0.00 | 71 | 1007.0 |
| 20260506024658 | 62 | 233 | 1.0 | 3.0 | 0.00 | 0.00 | 0.00 | 71 | 1007.1 |
| 20260506024559 | 62 | 233 | 0.0 | 3.0 | 0.00 | 0.00 | 0.00 | 71 | 1007.1 |
| 20260506024505 | 62 | 233 | 1.0 | 3.0 | 0.00 | 0.00 | 0.00 | 71 | 1007.1 |
| 20260506024358 | 62 | 233 | 0.0 | 3.0 | 0.00 | 0.00 | 0.00 | 70 | 1007.1 |
| 20260506024159 | 62 | 233 | 1.0 | 3.0 | 0.00 | 0.00 | 0.00 | 70 | 1007.1 |
| 20260506024058 | 62 | 233 | 0.0 | 3.0 | 0.00 | 0.00 | 0.00 | 71 | 1007.1 |
| 20260506024000 | 62 | 233 | 3.0 | 3.0 | 0.00 | 0.00 | 0.00 | 70 | 1007.1 |
| 20260506023658 | 62 | 236 | 0.0 | 2.0 | 0.00 | 0.00 | 0.00 | 70 | 1007.0 |
| 20260506023505 | 63 | 236 | 1.0 | 2.0 | 0.00 | 0.00 | 0.00 | 69 | 1007.0 |
| 20260506023400 | 63 | 236 | 1.0 | 2.0 | 0.00 | 0.00 | 0.00 | 70 | 1007.0 |
| 20260506023259 | 63 | 236 | 1.0 | 2.0 | 0.00 | 0.00 | 0.00 | 69 | 1007.0 |
| 20260506023158 | 63 | 236 | 1.0 | 2.0 | 0.00 | 0.00 | 0.00 | 70 | 1007.0 |
| 20260506023059 | 63 | 236 | 1.0 | 2.0 | 0.00 | 0.00 | 0.00 | 70 | 1007.0 |
| 20260506022858 | 63 | 236 | 0.0 | 2.0 | 0.00 | 0.00 | 0.00 | 69 | 1007.0 |
| 20260506022759 | 63 | 236 | 0.0 | 2.0 | 0.00 | 0.00 | 0.00 | 69 | 1007.1 |
| 20260506022658 | 63 | 236 | 0.0 | 2.0 | 0.00 | 0.00 | 0.00 | 69 | 1007.0 |
| 20260506022559 | 63 | 236 | 2.0 | 2.0 | 0.00 | 0.00 | 0.00 | 68 | 1007.1 |
| 20260506022505 | 63 | 236 | 0.0 | 2.0 | 0.00 | 0.00 | 0.00 | 68 | 1007.1 |
| 20260506022359 | 63 | 236 | 0.0 | 2.0 | 0.00 | 0.00 | 0.00 | 69 | 1007.1 |
| 20260506022259 | 63 | 236 | 2.0 | 2.0 | 0.00 | 0.00 | 0.00 | 68 | 1007.1 |
| 20260506022059 | 63 | 236 | 1.0 | 2.0 | 0.00 | 0.00 | 0.00 | 68 | 1007.1 |
| 20260506022000 | 63 | 236 | 1.0 | 2.0 | 0.00 | 0.00 | 0.00 | 67 | 1007.1 |
| 20260506021858 | 63 | 236 | 1.0 | 2.0 | 0.00 | 0.00 | 0.00 | 68 | 1007.1 |
| 20260506021758 | 63 | 236 | 2.0 | 2.0 | 0.00 | 0.00 | 0.00 | 68 | 1007.1 |
| 20260506021659 | 64 | 236 | 0.0 | 2.0 | 0.00 | 0.00 | 0.00 | 68 | 1007.1 |
| 20260506021559 | 64 | 236 | 1.0 | 3.0 | 0.00 | 0.00 | 0.00 | 68 | 1007.0 |
| 20260506021500 | 64 | 236 | 2.0 | 3.0 | 0.00 | 0.00 | 0.00 | 68 | 1007.1 |
| 20260506021258 | 64 | 236 | 1.0 | 3.0 | 0.00 | 0.00 | 0.00 | 67 | 1007.1 |
| 20260506021159 | 64 | 236 | 0.0 | 3.0 | 0.00 | 0.00 | 0.00 | 67 | 1007.1 |
| 20260506021059 | 64 | 236 | 0.0 | 3.0 | 0.00 | 0.00 | 0.00 | 66 | 1007.1 |
| 20260506021000 | 64 | 236 | 0.0 | 3.0 | 0.00 | 0.00 | 0.00 | 67 | 1007.1 |
| 20260506020859 | 64 | 236 | 0.0 | 3.0 | 0.00 | 0.00 | 0.00 | 67 | 1007.0 |
| 20260506020800 | 64 | 236 | 2.0 | 3.0 | 0.00 | 0.00 | 0.00 | 67 | 1007.1 |
| 20260506020659 | 64 | 236 | 1.0 | 3.0 | 0.00 | 0.00 | 0.00 | 67 | 1007.1 |
| 20260506020559 | 65 | 236 | 0.0 | 3.0 | 0.00 | 0.00 | 0.00 | 66 | 1007.0 |
| 20260506020506 | 65 | 236 | 0.0 | 3.0 | 0.00 | 0.00 | 0.00 | 66 | 1007.0 |
| 20260506020400 | 65 | 236 | 0.0 | 3.0 | 0.00 | 0.00 | 0.00 | 66 | 1007.0 |
| 20260506020259 | 65 | 236 | 2.0 | 2.0 | 0.00 | 0.00 | 0.00 | 66 | 1007.0 |
| 20260506020059 | 65 | 236 | 0.0 | 2.0 | 0.00 | 0.00 | 0.00 | 65 | 1007.0 |
| 20260506020002 | 65 | 236 | 0.0 | 2.0 | 0.00 | 0.00 | 0.00 | 65 | 1007.0 |
| 20260506015858 | 65 | 236 | 1.0 | 2.0 | 0.00 | 0.00 | 0.00 | 65 | 1006.9 |
| 20260506015758 | 65 | 236 | 1.0 | 2.0 | 0.00 | 0.00 | 0.00 | 64 | 1007.0 |
| 20260506015658 | 65 | 236 | 1.0 | 2.0 | 0.00 | 0.00 | 0.00 | 65 | 1007.0 |
| 20260506015558 | 66 | 236 | 2.0 | 2.0 | 0.00 | 0.00 | 0.00 | 64 | 1007.0 |
| 20260506015500 | 66 | 236 | 0.0 | 2.0 | 0.00 | 0.00 | 0.00 | 64 | 1006.9 |
| 20260506015358 | 66 | 236 | 0.0 | 2.0 | 0.00 | 0.00 | 0.00 | 63 | 1007.0 |
| 20260506015157 | 66 | 236 | 0.0 | 2.0 | 0.00 | 0.00 | 0.00 | 64 | 1006.9 |
| 20260506015058 | 66 | 236 | 0.0 | 2.0 | 0.00 | 0.00 | 0.00 | 64 | 1006.8 |
| 20260506014857 | 66 | 236 | 0.0 | 2.0 | 0.00 | 0.00 | 0.00 | 63 | 1006.8 |
| 20260506014759 | 66 | 236 | 1.0 | 2.0 | 0.00 | 0.00 | 0.00 | 63 | 1006.8 |
| 20260506014657 | 66 | 236 | 1.0 | 2.0 | 0.00 | 0.00 | 0.00 | 61 | 1006.8 |
| 20260506014558 | 67 | 236 | 2.0 | 2.0 | 0.00 | 0.00 | 0.00 | 61 | 1006.8 |
| 20260506014258 | 67 | 238 | 0.0 | 2.0 | 0.00 | 0.00 | 0.00 | 62 | 1006.8 |
| 20260506014158 | 67 | 238 | 1.0 | 2.0 | 0.00 | 0.00 | 0.00 | 61 | 1006.8 |
| 20260506014059 | 67 | 238 | 2.0 | 2.0 | 0.00 | 0.00 | 0.00 | 61 | 1006.8 |
| 20260506013758 | 68 | 238 | 0.0 | 3.0 | 0.00 | 0.00 | 0.00 | 60 | 1006.8 |
| 20260506013657 | 68 | 238 | 1.0 | 3.0 | 0.00 | 0.00 | 0.00 | 60 | 1006.8 |
| 20260506013459 | 68 | 238 | 0.0 | 3.0 | 0.00 | 0.00 | 0.00 | 59 | 1006.8 |
| 20260506013358 | 68 | 238 | 0.0 | 3.0 | 0.00 | 0.00 | 0.00 | 59 | 1006.8 |
| 20260506013258 | 68 | 238 | 1.0 | 3.0 | 0.00 | 0.00 | 0.00 | 59 | 1006.7 |
| 20260506013158 | 68 | 238 | 0.0 | 3.0 | 0.00 | 0.00 | 0.00 | 59 | 1006.6 |
| 20260506013059 | 68 | 238 | 1.0 | 3.0 | 0.00 | 0.00 | 0.00 | 60 | 1006.7 |
| 20260506012959 | 68 | 243 | 3.0 | 3.0 | 0.00 | 0.00 | 0.00 | 57 | 1006.7 |
| 20260506012859 | 68 | 243 | 1.0 | 2.0 | 0.00 | 0.00 | 0.00 | 58 | 1006.7 |
| 20260506012758 | 69 | 243 | 2.0 | 2.0 | 0.00 | 0.00 | 0.00 | 59 | 1006.7 |
| 20260506012658 | 69 | 243 | 0.0 | 1.0 | 0.00 | 0.00 | 0.00 | 58 | 1006.7 |
| 20260506012600 | 69 | 243 | 0.0 | 1.0 | 0.00 | 0.00 | 0.00 | 58 | 1006.7 |
| 20260506012500 | 69 | 243 | 0.0 | 1.0 | 0.00 | 0.00 | 0.00 | 58 | 1006.7 |
| 20260506012359 | 69 | 243 | 0.0 | 1.0 | 0.00 | 0.00 | 0.00 | 58 | 1006.7 |
| 20260506012257 | 69 | 243 | 1.0 | 1.0 | 0.00 | 0.00 | 0.00 | 57 | 1006.6 |
| 20260506012159 | 69 | 243 | 0.0 | 2.0 | 0.00 | 0.00 | 0.00 | 58 | 1006.6 |
| 20260506012058 | 69 | 243 | 0.0 | 2.0 | 0.00 | 0.00 | 0.00 | 56 | 1006.6 |
| 20260506011858 | 69 | 243 | 0.0 | 2.0 | 0.00 | 0.00 | 0.00 | 58 | 1006.6 |
| 20260506011758 | 69 | 243 | 0.0 | 2.0 | 0.00 | 0.00 | 0.00 | 56 | 1006.6 |
| 20260506011658 | 69 | 243 | 0.0 | 2.0 | 0.00 | 0.00 | 0.00 | 57 | 1006.6 |
| 20260506011558 | 69 | 243 | 1.0 | 2.0 | 0.00 | 0.00 | 0.00 | 56 | 1006.5 |
| 20260506011359 | 69 | 243 | 0.0 | 2.0 | 0.00 | 0.00 | 0.00 | 56 | 1006.5 |
| 20260506011259 | 70 | 243 | 0.0 | 2.0 | 0.00 | 0.00 | 0.00 | 57 | 1006.5 |
| 20260506011158 | 70 | 243 | 0.0 | 2.0 | 0.00 | 0.00 | 0.00 | 56 | 1006.4 |
| 20260506011001 | 70 | 243 | 1.0 | 2.0 | 0.00 | 0.00 | 0.00 | 55 | 1006.4 |
| 20260506010858 | 70 | 243 | 0.0 | 2.0 | 0.00 | 0.00 | 0.00 | 56 | 1006.5 |
| 20260506010758 | 70 | 243 | 1.0 | 2.0 | 0.00 | 0.00 | 0.00 | 55 | 1006.4 |
| 20260506010658 | 70 | 243 | 0.0 | 2.0 | 0.00 | 0.00 | 0.00 | 54 | 1006.4 |
| 20260506010459 | 70 | 243 | 0.0 | 2.0 | 0.00 | 0.00 | 0.00 | 56 | 1006.5 |
| 20260506010357 | 70 | 243 | 0.0 | 2.0 | 0.00 | 0.00 | 0.00 | 56 | 1006.4 |
| 20260506010259 | 71 | 243 | 0.0 | 2.0 | 0.00 | 0.00 | 0.00 | 54 | 1006.4 |
| 20260506010158 | 71 | 243 | 0.0 | 2.0 | 0.00 | 0.00 | 0.00 | 54 | 1006.4 |
| 20260506010059 | 71 | 243 | 0.0 | 1.0 | 0.00 | 0.00 | 0.00 | 56 | 1006.4 |
| 20260506005959 | 71 | 243 | 0.0 | 1.0 | 0.00 | 0.00 | 0.00 | 53 | 1006.4 |
| 20260506005859 | 71 | 243 | 0.0 | 2.0 | 0.00 | 0.00 | 0.00 | 53 | 1006.3 |
| 20260506005657 | 71 | 243 | 0.0 | 2.0 | 0.00 | 0.00 | 0.00 | 53 | 1006.3 |
| 20260506005459 | 72 | 243 | 0.0 | 2.0 | 0.00 | 0.00 | 0.00 | 54 | 1006.3 |
| 20260506005358 | 72 | 243 | 0.0 | 2.0 | 0.00 | 0.00 | 0.00 | 53 | 1006.3 |
| 20260506005258 | 72 | 243 | 0.0 | 2.0 | 0.00 | 0.00 | 0.00 | 53 | 1006.3 |
| 20260506005157 | 72 | 243 | 0.0 | 2.0 | 0.00 | 0.00 | 0.00 | 54 | 1006.3 |
| 20260506005059 | 72 | 243 | 1.0 | 2.0 | 0.00 | 0.00 | 0.00 | 53 | 1006.3 |
| 20260506004857 | 72 | 243 | 0.0 | 2.0 | 0.00 | 0.00 | 0.00 | 53 | 1006.3 |
| 20260506004757 | 72 | 243 | 2.0 | 4.0 | 0.00 | 0.00 | 0.00 | 53 | 1006.3 |
| 20260506004658 | 72 | 243 | 0.0 | 4.0 | 0.00 | 0.00 | 0.00 | 53 | 1006.3 |
| 20260506004500 | 72 | 243 | 0.0 | 5.0 | 0.00 | 0.00 | 0.00 | 52 | 1006.2 |
| 20260506004357 | 73 | 243 | 1.0 | 5.0 | 0.00 | 0.00 | 0.00 | 52 | 1006.2 |
| 20260506004257 | 73 | 243 | 1.0 | 5.0 | 0.00 | 0.00 | 0.00 | 52 | 1006.2 |
| 20260506004158 | 73 | 243 | 0.0 | 5.0 | 0.00 | 0.00 | 0.00 | 52 | 1006.1 |
| 20260506004058 | 73 | 243 | 0.0 | 5.0 | 0.00 | 0.00 | 0.00 | 51 | 1006.1 |
| 20260506003959 | 73 | 243 | 0.0 | 5.0 | 0.00 | 0.00 | 0.00 | 53 | 1006.2 |
| 20260506003859 | 73 | 248 | 3.0 | 5.0 | 0.00 | 0.00 | 0.00 | 50 | 1006.1 |
| 20260506003801 | 73 | 286 | 3.0 | 5.0 | 0.00 | 0.00 | 0.00 | 50 | 1006.1 |
| 20260506003658 | 73 | 285 | 2.0 | 5.0 | 0.00 | 0.00 | 0.00 | 51 | 1006.1 |
| 20260506003558 | 73 | 285 | 2.0 | 5.0 | 0.00 | 0.00 | 0.00 | 51 | 1006.1 |
| 20260506003500 | 73 | 287 | 5.0 | 5.0 | 0.00 | 0.00 | 0.00 | 53 | 1006.1 |
| 20260506003358 | 73 | 225 | 1.0 | 3.0 | 0.00 | 0.00 | 0.00 | 51 | 1006.1 |
| 20260506003258 | 73 | 348 | 2.0 | 3.0 | 0.00 | 0.00 | 0.00 | 49 | 1006.0 |
| 20260506003158 | 73 | 348 | 2.0 | 3.0 | 0.00 | 0.00 | 0.00 | 50 | 1006.1 |
| 20260506002959 | 74 | 348 | 2.0 | 4.0 | 0.00 | 0.00 | 0.00 | 50 | 1006.0 |
| 20260506002858 | 74 | 355 | 2.0 | 4.0 | 0.00 | 0.00 | 0.00 | 51 | 1006.0 |
| 20260506002801 | 74 | 355 | 1.0 | 4.0 | 0.00 | 0.00 | 0.00 | 50 | 1005.9 |
| 20260506002657 | 74 | 355 | 2.0 | 4.0 | 0.00 | 0.00 | 0.00 | 49 | 1006.0 |
| 20260506002459 | 74 | 267 | 0.0 | 4.0 | 0.00 | 0.00 | 0.00 | 50 | 1006.0 |
| 20260506002358 | 74 | 267 | 0.0 | 4.0 | 0.00 | 0.00 | 0.00 | 51 | 1005.9 |
| 20260506002258 | 74 | 267 | 2.0 | 4.0 | 0.00 | 0.00 | 0.00 | 49 | 1005.9 |
| 20260506002058 | 74 | 267 | 2.0 | 4.0 | 0.00 | 0.00 | 0.00 | 48 | 1005.9 |
| 20260506001958 | 74 | 300 | 2.0 | 4.0 | 0.00 | 0.00 | 0.00 | 50 | 1005.9 |
| 20260506001857 | 74 | 32 | 0.0 | 4.0 | 0.00 | 0.00 | 0.00 | 51 | 1005.8 |
| 20260506001758 | 74 | 32 | 1.0 | 7.0 | 0.00 | 0.00 | 0.00 | 50 | 1005.9 |
| 20260506001700 | 74 | 32 | 0.0 | 7.0 | 0.00 | 0.00 | 0.00 | 50 | 1005.9 |
| 20260506001558 | 74 | 32 | 0.0 | 7.0 | 0.00 | 0.00 | 0.00 | 49 | 1005.8 |
| 20260506001459 | 74 | 32 | 1.0 | 7.0 | 0.00 | 0.00 | 0.00 | 49 | 1005.9 |
| 20260506001358 | 74 | 32 | 1.0 | 7.0 | 0.00 | 0.00 | 0.00 | 48 | 1005.8 |
| 20260506001257 | 74 | 146 | 0.0 | 7.0 | 0.00 | 0.00 | 0.00 | 49 | 1005.8 |
| 20260506001057 | 75 | 146 | 0.0 | 7.0 | 0.00 | 0.00 | 0.00 | 48 | 1005.7 |
| 20260506001001 | 75 | 146 | 2.0 | 7.0 | 0.00 | 0.00 | 0.00 | 49 | 1005.8 |
| 20260506000858 | 75 | 146 | 1.0 | 7.0 | 0.00 | 0.00 | 0.00 | 48 | 1005.7 |
| 20260506000757 | 75 | 76 | 3.0 | 3.0 | 0.00 | 0.00 | 0.00 | 50 | 1005.8 |
| 20260506000658 | 75 | 165 | 2.0 | 4.0 | 0.00 | 0.00 | 0.00 | 48 | 1005.8 |
| 20260506000358 | 75 | 223 | 0.0 | 3.0 | 0.00 | 0.00 | 0.00 | 47 | 1005.7 |
| 20260506000257 | 75 | 223 | 2.0 | 3.0 | 0.00 | 0.00 | 0.00 | 49 | 1005.8 |
| 20260506000158 | 75 | 288 | 0.0 | 3.0 | 0.00 | 0.00 | 0.00 | 47 | 1005.8 |
| 20260506000057 | 75 | 288 | 0.0 | 3.0 | 0.00 | 0.00 | 0.00 | 48 | 1005.8 |
| 20260506000005 | 75 | 288 | 0.0 | 3.0 | 0.00 | 0.00 | 0.00 | 48 | 1005.8 |
| 20260505235859 | 76 | 288 | 0.0 | 3.0 | 0.00 | 0.00 | 0.00 | 48 | 1005.7 |
| 20260505235757 | 76 | 288 | 0.0 | 3.0 | 0.00 | 0.00 | 0.00 | 48 | 1005.8 |
| 20260505235558 | 76 | 288 | 0.0 | 3.0 | 0.00 | 0.00 | 0.00 | 48 | 1005.8 |
| 20260505235357 | 76 | 288 | 3.0 | 3.0 | 0.00 | 0.00 | 0.00 | 47 | 1005.8 |
| 20260505235058 | 76 | 281 | 0.0 | 5.0 | 0.00 | 0.00 | 0.00 | 48 | 1005.9 |
| 20260505235000 | 76 | 186 | 2.0 | 5.0 | 0.00 | 0.00 | 0.00 | 47 | 1005.9 |
| 20260505234758 | 76 | 37 | 2.0 | 5.0 | 0.00 | 0.00 | 0.00 | 46 | 1005.9 |
| 20260505234658 | 76 | 37 | 2.0 | 5.0 | 0.00 | 0.00 | 0.00 | 47 | 1005.8 |
| 20260505234558 | 76 | 37 | 0.0 | 5.0 | 0.00 | 0.00 | 0.00 | 47 | 1005.8 |
| 20260505234500 | 76 | 37 | 1.0 | 5.0 | 0.00 | 0.00 | 0.00 | 47 | 1005.9 |
| 20260505234357 | 76 | 37 | 1.0 | 5.0 | 0.00 | 0.00 | 0.00 | 47 | 1005.8 |
| 20260505234200 | 76 | 143 | 2.0 | 6.0 | 0.00 | 0.00 | 0.00 | 46 | 1005.7 |
| 20260505234059 | 76 | 275 | 0.0 | 6.0 | 0.00 | 0.00 | 0.00 | 47 | 1005.8 |
| 20260505234000 | 76 | 275 | 1.0 | 6.0 | 0.00 | 0.00 | 0.00 | 47 | 1005.7 |
| 20260505233858 | 77 | 275 | 1.0 | 6.0 | 0.00 | 0.00 | 0.00 | 46 | 1005.7 |
| 20260505233758 | 77 | 275 | 1.0 | 6.0 | 0.00 | 0.00 | 0.00 | 47 | 1005.7 |
| 20260505233659 | 77 | 275 | 2.0 | 6.0 | 0.00 | 0.00 | 0.00 | 47 | 1005.7 |
| 20260505233557 | 77 | 275 | 1.0 | 6.0 | 0.00 | 0.00 | 0.00 | 48 | 1005.6 |
| 20260505233458 | 77 | 300 | 3.0 | 5.0 | 0.00 | 0.00 | 0.00 | 46 | 1005.7 |
| 20260505233257 | 77 | 197 | 1.0 | 5.0 | 0.00 | 0.00 | 0.00 | 46 | 1005.6 |
| 20260505233158 | 77 | 197 | 2.0 | 8.0 | 0.00 | 0.00 | 0.00 | 46 | 1005.6 |
| 20260505233058 | 77 | 216 | 2.0 | 8.0 | 0.00 | 0.00 | 0.00 | 46 | 1005.6 |
| 20260505232959 | 77 | 205 | 1.0 | 8.0 | 0.00 | 0.00 | 0.00 | 46 | 1005.6 |
| 20260505232859 | 77 | 205 | 1.0 | 8.0 | 0.00 | 0.00 | 0.00 | 46 | 1005.7 |
| 20260505232758 | 77 | 219 | 3.0 | 8.0 | 0.00 | 0.00 | 0.00 | 46 | 1005.6 |
| 20260505232658 | 77 | 269 | 2.0 | 8.0 | 0.00 | 0.00 | 0.00 | 46 | 1005.6 |
| 20260505232558 | 77 | 272 | 3.0 | 8.0 | 0.00 | 0.00 | 0.00 | 46 | 1005.7 |
| 20260505232459 | 77 | 257 | 2.0 | 8.0 | 0.00 | 0.00 | 0.00 | 47 | 1005.6 |
| 20260505232359 | 77 | 257 | 0.0 | 8.0 | 0.00 | 0.00 | 0.00 | 47 | 1005.6 |
| 20260505232259 | 77 | 257 | 2.0 | 8.0 | 0.00 | 0.00 | 0.00 | 45 | 1005.6 |
| 20260505232157 | 77 | 284 | 3.0 | 8.0 | 0.00 | 0.00 | 0.00 | 45 | 1005.6 |
| 20260505232000 | 77 | 202 | 3.0 | 8.0 | 0.00 | 0.00 | 0.00 | 47 | 1005.7 |
| 20260505231859 | 77 | 273 | 2.0 | 8.0 | 0.00 | 0.00 | 0.00 | 46 | 1005.6 |
| 20260505231759 | 77 | 280 | 2.0 | 8.0 | 0.00 | 0.00 | 0.00 | 46 | 1005.6 |
| 20260505231657 | 77 | 360 | 0.0 | 8.0 | 0.00 | 0.00 | 0.00 | 46 | 1005.6 |
| 20260505231358 | 77 | 240 | 2.0 | 8.0 | 0.00 | 0.00 | 0.00 | 46 | 1005.6 |
| 20260505231158 | 78 | 253 | 5.0 | 7.0 | 0.00 | 0.00 | 0.00 | 46 | 1005.6 |
| 20260505230859 | 78 | 202 | 1.0 | 7.0 | 0.00 | 0.00 | 0.00 | 47 | 1005.6 |
| 20260505230758 | 78 | 186 | 3.0 | 7.0 | 0.00 | 0.00 | 0.00 | 46 | 1005.6 |
| 20260505230500 | 78 | 338 | 2.0 | 7.0 | 0.00 | 0.00 | 0.00 | 45 | 1005.5 |
| 20260505230358 | 78 | 119 | 3.0 | 7.0 | 0.00 | 0.00 | 0.00 | 46 | 1005.6 |
| 20260505230258 | 78 | 304 | 1.0 | 8.0 | 0.00 | 0.00 | 0.00 | 46 | 1005.5 |
| 20260505230158 | 78 | 304 | 0.0 | 10.0 | 0.00 | 0.00 | 0.00 | 46 | 1005.5 |
| 20260505230057 | 78 | 302 | 4.0 | 17.0 | 0.00 | 0.00 | 0.00 | 46 | 1005.6 |
| 20260505225858 | 78 | 229 | 2.0 | 17.0 | 0.00 | 0.00 | 0.00 | 47 | 1005.4 |
| 20260505225758 | 78 | 186 | 2.0 | 17.0 | 0.00 | 0.00 | 0.00 | 47 | 1005.4 |
| 20260505225658 | 78 | 186 | 3.0 | 17.0 | 0.00 | 0.00 | 0.00 | 46 | 1005.4 |
| 20260505225558 | 78 | 222 | 2.0 | 17.0 | 0.00 | 0.00 | 0.00 | 46 | 1005.3 |
| 20260505225359 | 78 | 229 | 2.0 | 17.0 | 0.00 | 0.00 | 0.00 | 46 | 1005.4 |
| 20260505225258 | 78 | 126 | 3.0 | 17.0 | 0.00 | 0.00 | 0.00 | 46 | 1005.4 |
| 20260505225158 | 78 | 234 | 5.0 | 17.0 | 0.00 | 0.00 | 0.00 | 46 | 1005.3 |
| 20260505225058 | 78 | 277 | 6.0 | 10.0 | 0.00 | 0.00 | 0.00 | 47 | 1005.3 |
| 20260505225000 | 78 | 224 | 5.0 | 7.0 | 0.00 | 0.00 | 0.00 | 48 | 1005.4 |
| 20260505224859 | 78 | 236 | 1.0 | 7.0 | 0.00 | 0.00 | 0.00 | 47 | 1005.3 |
| 20260505224757 | 78 | 236 | 1.0 | 7.0 | 0.00 | 0.00 | 0.00 | 47 | 1005.4 |
| 20260505224658 | 78 | 236 | 3.0 | 7.0 | 0.00 | 0.00 | 0.00 | 47 | 1005.4 |
| 20260505224358 | 78 | 213 | 4.0 | 6.0 | 0.00 | 0.00 | 0.00 | 47 | 1005.3 |
| 20260505224257 | 78 | 182 | 3.0 | 6.0 | 0.00 | 0.00 | 0.00 | 47 | 1005.3 |
| 20260505224157 | 78 | 132 | 1.0 | 6.0 | 0.00 | 0.00 | 0.00 | 48 | 1005.2 |
| 20260505224058 | 78 | 219 | 2.0 | 6.0 | 0.00 | 0.00 | 0.00 | 47 | 1005.2 |
| 20260505224000 | 79 | 240 | 0.0 | 6.0 | 0.00 | 0.00 | 0.00 | 47 | 1005.2 |
| 20260505223859 | 79 | 294 | 2.0 | 5.0 | 0.00 | 0.00 | 0.00 | 49 | 1005.2 |
| 20260505223758 | 79 | 322 | 4.0 | 5.0 | 0.00 | 0.00 | 0.00 | 48 | 1005.3 |
| 20260505223657 | 79 | 253 | 0.0 | 5.0 | 0.00 | 0.00 | 0.00 | 48 | 1005.3 |
| 20260505223559 | 79 | 253 | 2.0 | 6.0 | 0.00 | 0.00 | 0.00 | 48 | 1005.2 |
| 20260505223358 | 79 | 249 | 2.0 | 6.0 | 0.00 | 0.00 | 0.00 | 49 | 1005.3 |
| 20260505223259 | 79 | 312 | 1.0 | 6.0 | 0.00 | 0.00 | 0.00 | 47 | 1005.3 |
| 20260505223157 | 79 | 312 | 2.0 | 6.0 | 0.00 | 0.00 | 0.00 | 47 | 1005.2 |
| 20260505223059 | 79 | 316 | 3.0 | 6.0 | 0.00 | 0.00 | 0.00 | 47 | 1005.3 |
| 20260505222857 | 79 | 273 | 1.0 | 6.0 | 0.00 | 0.00 | 0.00 | 46 | 1005.3 |
| 20260505222757 | 79 | 267 | 4.0 | 6.0 | 0.00 | 0.00 | 0.00 | 47 | 1005.3 |
| 20260505222700 | 79 | 167 | 6.0 | 6.0 | 0.00 | 0.00 | 0.00 | 47 | 1005.3 |
| 20260505222559 | 79 | 260 | 2.0 | 17.0 | 0.00 | 0.00 | 0.00 | 46 | 1005.3 |
| 20260505222259 | 79 | 184 | 2.0 | 20.0 | 0.00 | 0.00 | 0.00 | 47 | 1005.3 |
| 20260505222158 | 79 | 184 | 3.0 | 20.0 | 0.00 | 0.00 | 0.00 | 46 | 1005.3 |
| 20260505222059 | 79 | 161 | 2.0 | 20.0 | 0.00 | 0.00 | 0.00 | 46 | 1005.2 |
| 20260505222000 | 79 | 360 | 2.0 | 20.0 | 0.00 | 0.00 | 0.00 | 46 | 1005.4 |
| 20260505221858 | 79 | 242 | 3.0 | 20.0 | 0.00 | 0.00 | 0.00 | 46 | 1005.4 |
| 20260505221758 | 79 | 285 | 3.0 | 20.0 | 0.00 | 0.00 | 0.00 | 46 | 1005.4 |
| 20260505221658 | 79 | 236 | 1.0 | 20.0 | 0.00 | 0.00 | 0.00 | 45 | 1005.5 |
| 20260505221557 | 79 | 213 | 3.0 | 10.0 | 0.00 | 0.00 | 0.00 | 46 | 1005.3 |
| 20260505221500 | 79 | 167 | 11.0 | 11.0 | 0.00 | 0.00 | 0.00 | 46 | 1005.4 |
| 20260505221357 | 80 | 190 | 4.0 | 10.0 | 0.00 | 0.00 | 0.00 | 48 | 1005.4 |
| 20260505221259 | 80 | 257 | 1.0 | 10.0 | 0.00 | 0.00 | 0.00 | 48 | 1005.4 |
| 20260505221159 | 80 | 236 | 3.0 | 10.0 | 0.00 | 0.00 | 0.00 | 47 | 1005.3 |
| 20260505221058 | 80 | 236 | 4.0 | 10.0 | 0.00 | 0.00 | 0.00 | 46 | 1005.4 |
| 20260505220959 | 80 | 143 | 2.0 | 10.0 | 0.00 | 0.00 | 0.00 | 46 | 1005.4 |
| 20260505220758 | 80 | 189 | 6.0 | 10.0 | 0.00 | 0.00 | 0.00 | 47 | 1005.3 |
| 20260505220658 | 80 | 212 | 2.0 | 10.0 | 0.00 | 0.00 | 0.00 | 47 | 1005.3 |
| 20260505220557 | 80 | 234 | 3.0 | 10.0 | 0.00 | 0.00 | 0.00 | 51 | 1005.3 |
| 20260505220459 | 80 | 225 | 2.0 | 10.0 | 0.00 | 0.00 | 0.00 | 47 | 1005.3 |
| 20260505220258 | 80 | 259 | 2.0 | 7.0 | 0.00 | 0.00 | 0.00 | 47 | 1005.3 |
| 20260505220200 | 80 | 276 | 4.0 | 14.0 | 0.00 | 0.00 | 0.00 | 48 | 1005.3 |
| 20260505220058 | 79 | 211 | 0.0 | 14.0 | 0.00 | 0.00 | 0.00 | 47 | 1005.3 |
| 20260505220005 | 79 | 208 | 3.0 | 14.0 | 0.00 | 0.00 | 0.00 | 49 | 1005.3 |
| 20260505215857 | 79 | 177 | 2.0 | 14.0 | 0.00 | 0.00 | 0.00 | 47 | 1005.4 |
| 20260505215658 | 79 | 177 | 3.0 | 14.0 | 0.00 | 0.00 | 0.00 | 46 | 1005.4 |
| 20260505215558 | 79 | 174 | 3.0 | 14.0 | 0.00 | 0.00 | 0.00 | 46 | 1005.3 |
| 20260505215500 | 79 | 278 | 6.0 | 14.0 | 0.00 | 0.00 | 0.00 | 46 | 1005.4 |
| 20260505215359 | 79 | 51 | 4.0 | 14.0 | 0.00 | 0.00 | 0.00 | 47 | 1005.4 |
| 20260505215258 | 79 | 165 | 12.0 | 14.0 | 0.00 | 0.00 | 0.00 | 47 | 1005.3 |
| 20260505215159 | 79 | 193 | 4.0 | 10.0 | 0.00 | 0.00 | 0.00 | 48 | 1005.4 |
| 20260505215057 | 79 | 285 | 4.0 | 10.0 | 0.00 | 0.00 | 0.00 | 48 | 1005.4 |
| 20260505215001 | 79 | 209 | 4.0 | 8.0 | 0.00 | 0.00 | 0.00 | 47 | 1005.4 |
| 20260505214758 | 79 | 122 | 3.0 | 9.0 | 0.00 | 0.00 | 0.00 | 47 | 1005.4 |
| 20260505214658 | 79 | 263 | 2.0 | 9.0 | 0.00 | 0.00 | 0.00 | 49 | 1005.4 |
| 20260505214558 | 79 | 144 | 1.0 | 9.0 | 0.00 | 0.00 | 0.00 | 48 | 1005.3 |
| 20260505214500 | 79 | 118 | 2.0 | 9.0 | 0.00 | 0.00 | 0.00 | 48 | 1005.3 |
| 20260505214359 | 80 | 121 | 2.0 | 9.0 | 0.00 | 0.00 | 0.00 | 50 | 1005.4 |
| 20260505214258 | 80 | 292 | 2.0 | 9.0 | 0.00 | 0.00 | 0.00 | 47 | 1005.4 |
| 20260505214058 | 80 | 238 | 1.0 | 9.0 | 0.00 | 0.00 | 0.00 | 47 | 1005.3 |
| 20260505213859 | 80 | 280 | 3.0 | 9.0 | 0.00 | 0.00 | 0.00 | 47 | 1005.4 |
| 20260505213759 | 80 | 161 | 8.0 | 15.0 | 0.00 | 0.00 | 0.00 | 47 | 1005.3 |
| 20260505213657 | 80 | 119 | 8.0 | 15.0 | 0.00 | 0.00 | 0.00 | 47 | 1005.4 |
| 20260505213557 | 80 | 258 | 3.0 | 15.0 | 0.00 | 0.00 | 0.00 | 48 | 1005.4 |
| 20260505213358 | 80 | 299 | 3.0 | 15.0 | 0.00 | 0.00 | 0.00 | 47 | 1005.4 |
| 20260505213258 | 80 | 219 | 2.0 | 15.0 | 0.00 | 0.00 | 0.00 | 48 | 1005.5 |
| 20260505213158 | 80 | 229 | 4.0 | 15.0 | 0.00 | 0.00 | 0.00 | 47 | 1005.4 |
| 20260505213058 | 80 | 212 | 4.0 | 15.0 | 0.00 | 0.00 | 0.00 | 48 | 1005.3 |
| 20260505213000 | 80 | 239 | 5.0 | 15.0 | 0.00 | 0.00 | 0.00 | 46 | 1005.2 |
| 20260505212858 | 80 | 214 | 7.0 | 16.0 | 0.00 | 0.00 | 0.00 | 47 | 1005.4 |
| 20260505212759 | 80 | 279 | 2.0 | 15.0 | 0.00 | 0.00 | 0.00 | 46 | 1005.2 |
| 20260505212700 | 80 | 180 | 3.0 | 15.0 | 0.00 | 0.00 | 0.00 | 46 | 1005.3 |
| 20260505212558 | 80 | 240 | 4.0 | 10.0 | 0.00 | 0.00 | 0.00 | 48 | 1005.3 |
| 20260505212501 | 80 | 210 | 2.0 | 10.0 | 0.00 | 0.00 | 0.00 | 49 | 1005.3 |
| 20260505212358 | 80 | 257 | 7.0 | 10.0 | 0.00 | 0.00 | 0.00 | 48 | 1005.3 |
| 20260505212259 | 80 | 312 | 5.0 | 10.0 | 0.00 | 0.00 | 0.00 | 49 | 1005.2 |
| 20260505212158 | 80 | 277 | 3.0 | 10.0 | 0.00 | 0.00 | 0.00 | 49 | 1005.3 |
| 20260505212058 | 80 | 189 | 6.0 | 10.0 | 0.00 | 0.00 | 0.00 | 48 | 1005.3 |
| 20260505212000 | 80 | 287 | 2.0 | 7.0 | 0.00 | 0.00 | 0.00 | 49 | 1005.2 |
| 20260505211759 | 80 | 271 | 0.0 | 11.0 | 0.00 | 0.00 | 0.00 | 48 | 1005.2 |
| 20260505211658 | 80 | 271 | 1.0 | 11.0 | 0.00 | 0.00 | 0.00 | 46 | 1005.2 |
| 20260505211557 | 80 | 246 | 3.0 | 11.0 | 0.00 | 0.00 | 0.00 | 47 | 1005.2 |
| 20260505211258 | 80 | 76 | 3.0 | 11.0 | 0.00 | 0.00 | 0.00 | 48 | 1005.1 |
| 20260505211058 | 80 | 175 | 2.0 | 11.0 | 0.00 | 0.00 | 0.00 | 47 | 1005.1 |
| 20260505211000 | 80 | 171 | 2.0 | 11.0 | 0.00 | 0.00 | 0.00 | 47 | 1005.2 |
| 20260505210858 | 80 | 321 | 5.0 | 11.0 | 0.00 | 0.00 | 0.00 | 46 | 1005.2 |
| 20260505210758 | 81 | 219 | 7.0 | 8.0 | 0.00 | 0.00 | 0.00 | 46 | 1005.1 |
| 20260505210659 | 81 | 258 | 7.0 | 8.0 | 0.00 | 0.00 | 0.00 | 45 | 1005.2 |
| 20260505210500 | 81 | 264 | 2.0 | 8.0 | 0.00 | 0.00 | 0.00 | 48 | 1005.1 |
| 20260505210358 | 81 | 190 | 3.0 | 8.0 | 0.00 | 0.00 | 0.00 | 46 | 1005.1 |
| 20260505210157 | 81 | 207 | 3.0 | 9.0 | 0.00 | 0.00 | 0.00 | 46 | 1005.1 |
| 20260505205959 | 81 | 175 | 2.0 | 9.0 | 0.00 | 0.00 | 0.00 | 49 | 1005.0 |
| 20260505205858 | 81 | 175 | 0.0 | 9.0 | 0.00 | 0.00 | 0.00 | 47 | 1005.1 |
| 20260505205759 | 81 | 175 | 3.0 | 14.0 | 0.00 | 0.00 | 0.00 | 47 | 1005.0 |
| 20260505205658 | 81 | 306 | 3.0 | 14.0 | 0.00 | 0.00 | 0.00 | 48 | 1005.0 |
| 20260505205559 | 80 | 229 | 3.0 | 14.0 | 0.00 | 0.00 | 0.00 | 46 | 1005.0 |
| 20260505205459 | 80 | 275 | 4.0 | 14.0 | 0.00 | 0.00 | 0.00 | 46 | 1005.1 |
| 20260505205358 | 80 | 250 | 4.0 | 14.0 | 0.00 | 0.00 | 0.00 | 46 | 1005.2 |
| 20260505205258 | 80 | 221 | 9.0 | 14.0 | 0.00 | 0.00 | 0.00 | 46 | 1005.2 |
| 20260505205159 | 80 | 163 | 2.0 | 14.0 | 0.00 | 0.00 | 0.00 | 47 | 1005.2 |
| 20260505205059 | 80 | 325 | 3.0 | 14.0 | 0.00 | 0.00 | 0.00 | 48 | 1005.1 |
| 20260505204858 | 80 | 171 | 6.0 | 14.0 | 0.00 | 0.00 | 0.00 | 46 | 1005.1 |
| 20260505204758 | 80 | 136 | 4.0 | 15.0 | 0.00 | 0.00 | 0.00 | 46 | 1005.2 |
| 20260505204558 | 81 | 272 | 6.0 | 15.0 | 0.00 | 0.00 | 0.00 | 47 | 1005.2 |
| 20260505204357 | 81 | 226 | 3.0 | 15.0 | 0.00 | 0.00 | 0.00 | 47 | 1005.2 |
| 20260505204258 | 81 | 263 | 3.0 | 15.0 | 0.00 | 0.00 | 0.00 | 47 | 1005.4 |
| 20260505204100 | 81 | 261 | 2.0 | 8.0 | 0.00 | 0.00 | 0.00 | 47 | 1005.2 |
| 20260505204000 | 81 | 200 | 6.0 | 8.0 | 0.00 | 0.00 | 0.00 | 47 | 1005.3 |
| 20260505203858 | 81 | 232 | 3.0 | 8.0 | 0.00 | 0.00 | 0.00 | 48 | 1005.2 |
| 20260505203757 | 81 | 232 | 4.0 | 8.0 | 0.00 | 0.00 | 0.00 | 46 | 1005.2 |
| 20260505203657 | 81 | 298 | 3.0 | 8.0 | 0.00 | 0.00 | 0.00 | 47 | 1005.3 |
| 20260505203558 | 81 | 205 | 6.0 | 8.0 | 0.00 | 0.00 | 0.00 | 48 | 1005.3 |
| 20260505203357 | 81 | 194 | 4.0 | 8.0 | 0.00 | 0.00 | 0.00 | 47 | 1005.3 |
| 20260505203259 | 81 | 250 | 5.0 | 9.0 | 0.00 | 0.00 | 0.00 | 46 | 1005.3 |
| 20260505203158 | 81 | 270 | 3.0 | 8.0 | 0.00 | 0.00 | 0.00 | 46 | 1005.3 |
| 20260505203059 | 81 | 226 | 5.0 | 10.0 | 0.00 | 0.00 | 0.00 | 47 | 1005.2 |
| 20260505203001 | 81 | 281 | 6.0 | 10.0 | 0.00 | 0.00 | 0.00 | 48 | 1005.2 |
| 20260505202858 | 81 | 138 | 3.0 | 12.0 | 0.00 | 0.00 | 0.00 | 48 | 1005.4 |
| 20260505202758 | 81 | 267 | 3.0 | 12.0 | 0.00 | 0.00 | 0.00 | 48 | 1005.2 |
| 20260505202558 | 81 | 277 | 6.0 | 12.0 | 0.00 | 0.00 | 0.00 | 52 | 1005.3 |
| 20260505202459 | 80 | 200 | 0.0 | 12.0 | 0.00 | 0.00 | 0.00 | 48 | 1005.3 |
| 20260505202257 | 80 | 240 | 2.0 | 12.0 | 0.00 | 0.00 | 0.00 | 49 | 1005.3 |
| 20260505202158 | 80 | 136 | 5.0 | 13.0 | 0.00 | 0.00 | 0.00 | 48 | 1005.3 |
| 20260505202058 | 80 | 125 | 4.0 | 13.0 | 0.00 | 0.00 | 0.00 | 51 | 1005.3 |
| 20260505201959 | 80 | 222 | 3.0 | 13.0 | 0.00 | 0.00 | 0.00 | 47 | 1005.3 |
| 20260505201858 | 80 | 141 | 3.0 | 13.0 | 0.00 | 0.00 | 0.00 | 48 | 1005.3 |
| 20260505201758 | 80 | 244 | 4.0 | 13.0 | 0.00 | 0.00 | 0.00 | 48 | 1005.4 |
| 20260505201658 | 80 | 124 | 3.0 | 13.0 | 0.00 | 0.00 | 0.00 | 48 | 1005.3 |
| 20260505201558 | 80 | 197 | 2.0 | 13.0 | 0.00 | 0.00 | 0.00 | 48 | 1005.3 |
| 20260505201500 | 80 | 324 | 3.0 | 13.0 | 0.00 | 0.00 | 0.00 | 48 | 1005.4 |
| 20260505201358 | 80 | 234 | 5.0 | 13.0 | 0.00 | 0.00 | 0.00 | 49 | 1005.3 |
| 20260505201259 | 80 | 225 | 3.0 | 15.0 | 0.00 | 0.00 | 0.00 | 49 | 1005.3 |
| 20260505201058 | 80 | 250 | 3.0 | 11.0 | 0.00 | 0.00 | 0.00 | 50 | 1005.2 |
| 20260505200958 | 80 | 178 | 2.0 | 11.0 | 0.00 | 0.00 | 0.00 | 48 | 1005.4 |
| 20260505200858 | 80 | 231 | 5.0 | 11.0 | 0.00 | 0.00 | 0.00 | 48 | 1005.3 |
| 20260505200759 | 80 | 234 | 9.0 | 11.0 | 0.00 | 0.00 | 0.00 | 48 | 1005.4 |
| 20260505200658 | 80 | 200 | 7.0 | 11.0 | 0.00 | 0.00 | 0.00 | 49 | 1005.4 |
| 20260505200558 | 80 | 275 | 4.0 | 8.0 | 0.00 | 0.00 | 0.00 | 47 | 1005.5 |
| 20260505200459 | 80 | 104 | 1.0 | 8.0 | 0.00 | 0.00 | 0.00 | 49 | 1005.4 |
| 20260505200357 | 80 | 286 | 2.0 | 11.0 | 0.00 | 0.00 | 0.00 | 50 | 1005.4 |
| 20260505200258 | 80 | 209 | 2.0 | 11.0 | 0.00 | 0.00 | 0.00 | 49 | 1005.5 |
| 20260505200158 | 80 | 239 | 3.0 | 11.0 | 0.00 | 0.00 | 0.00 | 49 | 1005.4 |
| 20260505200057 | 80 | 237 | 1.0 | 11.0 | 0.00 | 0.00 | 0.00 | 47 | 1005.4 |
| 20260505200005 | 80 | 131 | 3.0 | 11.0 | 0.00 | 0.00 | 0.00 | 47 | 1005.5 |
| 20260505195859 | 80 | 174 | 2.0 | 11.0 | 0.00 | 0.00 | 0.00 | 48 | 1005.4 |
| 20260505195657 | 80 | 234 | 2.0 | 11.0 | 0.00 | 0.00 | 0.00 | 50 | 1005.5 |
| 20260505195459 | 80 | 159 | 12.0 | 12.0 | 0.00 | 0.00 | 0.00 | 47 | 1005.5 |
| 20260505195400 | 80 | 185 | 3.0 | 11.0 | 0.00 | 0.00 | 0.00 | 46 | 1005.5 |
| 20260505195258 | 80 | 197 | 2.0 | 11.0 | 0.00 | 0.00 | 0.00 | 48 | 1005.6 |
| 20260505195157 | 80 | 85 | 1.0 | 11.0 | 0.00 | 0.00 | 0.00 | 48 | 1005.6 |
| 20260505195058 | 81 | 336 | 5.0 | 11.0 | 0.00 | 0.00 | 0.00 | 47 | 1005.6 |
| 20260505194959 | 81 | 154 | 8.0 | 11.0 | 0.00 | 0.00 | 0.00 | 48 | 1005.5 |
| 20260505194858 | 81 | 134 | 8.0 | 11.0 | 0.00 | 0.00 | 0.00 | 50 | 1005.5 |
| 20260505194759 | 81 | 312 | 2.0 | 11.0 | 0.00 | 0.00 | 0.00 | 48 | 1005.6 |
| 20260505194658 | 81 | 224 | 3.0 | 11.0 | 0.00 | 0.00 | 0.00 | 49 | 1005.6 |
| 20260505194558 | 81 | 223 | 3.0 | 11.0 | 0.00 | 0.00 | 0.00 | 47 | 1005.7 |
| 20260505194459 | 81 | 213 | 4.0 | 11.0 | 0.00 | 0.00 | 0.00 | 49 | 1005.7 |
| 20260505194258 | 81 | 254 | 4.0 | 11.0 | 0.00 | 0.00 | 0.00 | 47 | 1005.6 |
| 20260505194159 | 81 | 136 | 4.0 | 11.0 | 0.00 | 0.00 | 0.00 | 48 | 1005.6 |
| 20260505194057 | 81 | 322 | 2.0 | 11.0 | 0.00 | 0.00 | 0.00 | 47 | 1005.6 |
| 20260505193858 | 81 | 273 | 4.0 | 11.0 | 0.00 | 0.00 | 0.00 | 51 | 1005.6 |
| 20260505193758 | 81 | 205 | 7.0 | 12.0 | 0.00 | 0.00 | 0.00 | 47 | 1005.5 |
| 20260505193658 | 81 | 328 | 3.0 | 11.0 | 0.00 | 0.00 | 0.00 | 48 | 1005.5 |
| 20260505193500 | 81 | 208 | 3.0 | 15.0 | 0.00 | 0.00 | 0.00 | 52 | 1005.5 |
| 20260505193258 | 81 | 162 | 4.0 | 15.0 | 0.00 | 0.00 | 0.00 | 48 | 1005.6 |
| 20260505193158 | 81 | 160 | 5.0 | 15.0 | 0.00 | 0.00 | 0.00 | 48 | 1005.5 |
| 20260505193102 | 80 | 140 | 7.0 | 15.0 | 0.00 | 0.00 | 0.00 | 47 | 1005.6 |
| 20260505192959 | 80 | 102 | 2.0 | 15.0 | 0.00 | 0.00 | 0.00 | 49 | 1005.7 |
| 20260505192857 | 80 | 173 | 6.0 | 15.0 | 0.00 | 0.00 | 0.00 | 48 | 1005.7 |
| 20260505192758 | 81 | 276 | 3.0 | 15.0 | 0.00 | 0.00 | 0.00 | 47 | 1005.7 |
| 20260505192658 | 81 | 226 | 3.0 | 15.0 | 0.00 | 0.00 | 0.00 | 47 | 1005.6 |
| 20260505192458 | 81 | 165 | 13.0 | 13.0 | 0.00 | 0.00 | 0.00 | 48 | 1005.7 |
| 20260505192357 | 81 | 135 | 4.0 | 15.0 | 0.00 | 0.00 | 0.00 | 47 | 1005.7 |
| 20260505192259 | 81 | 213 | 4.0 | 15.0 | 0.00 | 0.00 | 0.00 | 48 | 1005.6 |
| 20260505192157 | 81 | 204 | 2.0 | 15.0 | 0.00 | 0.00 | 0.00 | 50 | 1005.6 |
| 20260505191858 | 81 | 167 | 4.0 | 15.0 | 0.00 | 0.00 | 0.00 | 48 | 1005.7 |
| 20260505191758 | 81 | 227 | 2.0 | 15.0 | 0.00 | 0.00 | 0.00 | 49 | 1005.7 |
| 20260505191558 | 80 | 145 | 3.0 | 15.0 | 0.00 | 0.00 | 0.00 | 47 | 1005.7 |
| 20260505191500 | 80 | 160 | 14.0 | 15.0 | 0.00 | 0.00 | 0.00 | 49 | 1005.8 |
| 20260505191359 | 80 | 190 | 2.0 | 11.0 | 0.00 | 0.00 | 0.00 | 47 | 1005.8 |
| 20260505191258 | 80 | 282 | 3.0 | 13.0 | 0.00 | 0.00 | 0.00 | 47 | 1005.9 |
| 20260505191157 | 81 | 256 | 3.0 | 8.0 | 0.00 | 0.00 | 0.00 | 49 | 1005.8 |
| 20260505191000 | 81 | 261 | 3.0 | 6.0 | 0.00 | 0.00 | 0.00 | 47 | 1005.8 |
| 20260505190857 | 81 | 292 | 5.0 | 9.0 | 0.00 | 0.00 | 0.00 | 50 | 1006.0 |
| 20260505190759 | 81 | 275 | 3.0 | 9.0 | 0.00 | 0.00 | 0.00 | 50 | 1005.9 |
| 20260505190657 | 81 | 169 | 4.0 | 9.0 | 0.00 | 0.00 | 0.00 | 50 | 1005.9 |
| 20260505190459 | 81 | 254 | 2.0 | 10.0 | 0.00 | 0.00 | 0.00 | 47 | 1005.9 |
| 20260505190257 | 81 | 275 | 1.0 | 10.0 | 0.00 | 0.00 | 0.00 | 49 | 1005.9 |
| 20260505190158 | 81 | 247 | 1.0 | 10.0 | 0.00 | 0.00 | 0.00 | 46 | 1005.9 |
| 20260505190057 | 81 | 292 | 4.0 | 10.0 | 0.00 | 0.00 | 0.00 | 46 | 1005.9 |
| 20260505185959 | 81 | 146 | 8.0 | 10.0 | 0.00 | 0.00 | 0.00 | 47 | 1006.0 |
| 20260505185858 | 81 | 232 | 4.0 | 10.0 | 0.00 | 0.00 | 0.00 | 50 | 1005.9 |
| 20260505185758 | 81 | 163 | 4.0 | 10.0 | 0.00 | 0.00 | 0.00 | 48 | 1005.9 |
| 20260505185658 | 81 | 267 | 10.0 | 10.0 | 0.00 | 0.00 | 0.00 | 48 | 1005.9 |
| 20260505185559 | 81 | 221 | 6.0 | 10.0 | 0.00 | 0.00 | 0.00 | 49 | 1005.9 |
| 20260505185500 | 81 | 271 | 3.0 | 8.0 | 0.00 | 0.00 | 0.00 | 48 | 1005.9 |
| 20260505185257 | 81 | 265 | 3.0 | 8.0 | 0.00 | 0.00 | 0.00 | 48 | 1006.1 |
| 20260505185158 | 81 | 206 | 4.0 | 8.0 | 0.00 | 0.00 | 0.00 | 50 | 1006.0 |
| 20260505185058 | 81 | 259 | 2.0 | 8.0 | 0.00 | 0.00 | 0.00 | 49 | 1006.1 |
| 20260505184959 | 81 | 269 | 3.0 | 12.0 | 0.00 | 0.00 | 0.00 | 49 | 1006.1 |
| 20260505184759 | 80 | 215 | 2.0 | 12.0 | 0.00 | 0.00 | 0.00 | 52 | 1006.2 |
| 20260505184559 | 80 | 85 | 1.0 | 12.0 | 0.00 | 0.00 | 0.00 | 49 | 1006.3 |
| 20260505184459 | 80 | 258 | 2.0 | 12.0 | 0.00 | 0.00 | 0.00 | 52 | 1006.2 |
| 20260505184359 | 80 | 200 | 2.0 | 12.0 | 0.00 | 0.00 | 0.00 | 49 | 1006.2 |
| 20260505184258 | 80 | 231 | 2.0 | 12.0 | 0.00 | 0.00 | 0.00 | 49 | 1006.4 |
| 20260505184158 | 80 | 219 | 2.0 | 12.0 | 0.00 | 0.00 | 0.00 | 48 | 1006.3 |
| 20260505184058 | 80 | 165 | 6.0 | 12.0 | 0.00 | 0.00 | 0.00 | 49 | 1006.3 |
| 20260505183959 | 80 | 34 | 2.0 | 12.0 | 0.00 | 0.00 | 0.00 | 49 | 1006.3 |
| 20260505183858 | 80 | 270 | 2.0 | 12.0 | 0.00 | 0.00 | 0.00 | 47 | 1006.4 |
| 20260505183758 | 80 | 330 | 4.0 | 12.0 | 0.00 | 0.00 | 0.00 | 48 | 1006.5 |
| 20260505183658 | 80 | 316 | 4.0 | 12.0 | 0.00 | 0.00 | 0.00 | 49 | 1006.4 |
| 20260505183558 | 80 | 147 | 10.0 | 12.0 | 0.00 | 0.00 | 0.00 | 48 | 1006.4 |
| 20260505183459 | 80 | 273 | 10.0 | 10.0 | 0.00 | 0.00 | 0.00 | 47 | 1006.4 |
| 20260505183357 | 80 | 138 | 7.0 | 9.0 | 0.00 | 0.00 | 0.00 | 50 | 1006.4 |
| 20260505183258 | 80 | 72 | 1.0 | 9.0 | 0.00 | 0.00 | 0.00 | 48 | 1006.3 |
| 20260505183158 | 80 | 88 | 1.0 | 9.0 | 0.00 | 0.00 | 0.00 | 47 | 1006.4 |
| 20260505182959 | 80 | 208 | 7.0 | 8.0 | 0.00 | 0.00 | 0.00 | 49 | 1006.4 |
| 20260505182857 | 80 | 261 | 3.0 | 8.0 | 0.00 | 0.00 | 0.00 | 49 | 1006.4 |
| 20260505182759 | 80 | 162 | 4.0 | 14.0 | 0.00 | 0.00 | 0.00 | 47 | 1006.4 |
| 20260505182658 | 80 | 218 | 8.0 | 17.0 | 0.00 | 0.00 | 0.00 | 47 | 1006.5 |
| 20260505182500 | 81 | 209 | 1.0 | 17.0 | 0.00 | 0.00 | 0.00 | 47 | 1006.6 |
| 20260505182359 | 81 | 265 | 6.0 | 17.0 | 0.00 | 0.00 | 0.00 | 51 | 1006.7 |
| 20260505182258 | 81 | 235 | 2.0 | 17.0 | 0.00 | 0.00 | 0.00 | 48 | 1006.6 |
| 20260505182158 | 81 | 244 | 7.0 | 17.0 | 0.00 | 0.00 | 0.00 | 48 | 1006.6 |
| 20260505182059 | 81 | 215 | 7.0 | 17.0 | 0.00 | 0.00 | 0.00 | 47 | 1006.5 |
| 20260505182001 | 81 | 158 | 2.0 | 17.0 | 0.00 | 0.00 | 0.00 | 47 | 1006.5 |
| 20260505181758 | 81 | 174 | 19.0 | 19.0 | 0.00 | 0.00 | 0.00 | 49 | 1006.5 |
| 20260505181658 | 81 | 252 | 3.0 | 12.0 | 0.00 | 0.00 | 0.00 | 49 | 1006.6 |
| 20260505181557 | 81 | 183 | 2.0 | 12.0 | 0.00 | 0.00 | 0.00 | 47 | 1006.5 |
| 20260505181358 | 81 | 280 | 8.0 | 11.0 | 0.00 | 0.00 | 0.00 | 47 | 1006.5 |
| 20260505181258 | 81 | 236 | 6.0 | 11.0 | 0.00 | 0.00 | 0.00 | 50 | 1006.4 |
| 20260505181159 | 81 | 109 | 2.0 | 11.0 | 0.00 | 0.00 | 0.00 | 48 | 1006.5 |
| 20260505181000 | 81 | 272 | 4.0 | 9.0 | 0.00 | 0.00 | 0.00 | 47 | 1006.5 |
| 20260505180859 | 81 | 223 | 5.0 | 9.0 | 0.00 | 0.00 | 0.00 | 47 | 1006.6 |
| 20260505180758 | 81 | 312 | 2.0 | 9.0 | 0.00 | 0.00 | 0.00 | 52 | 1006.6 |
| 20260505180658 | 81 | 247 | 2.0 | 9.0 | 0.00 | 0.00 | 0.00 | 49 | 1006.6 |
| 20260505180558 | 81 | 207 | 2.0 | 9.0 | 0.00 | 0.00 | 0.00 | 50 | 1006.6 |
| 20260505180500 | 81 | 248 | 1.0 | 9.0 | 0.00 | 0.00 | 0.00 | 49 | 1006.6 |
| 20260505180358 | 81 | 263 | 2.0 | 9.0 | 0.00 | 0.00 | 0.00 | 48 | 1006.7 |
| 20260505180258 | 81 | 279 | 4.0 | 9.0 | 0.00 | 0.00 | 0.00 | 50 | 1006.7 |
| 20260505180159 | 81 | 259 | 9.0 | 9.0 | 0.00 | 0.00 | 0.00 | 49 | 1006.7 |
| 20260505175758 | 81 | 138 | 3.0 | 8.0 | 0.00 | 0.00 | 0.00 | 50 | 1006.8 |
| 20260505175700 | 81 | 255 | 3.0 | 8.0 | 0.00 | 0.00 | 0.00 | 50 | 1006.8 |
| 20260505175357 | 81 | 111 | 2.0 | 8.0 | 0.00 | 0.00 | 0.00 | 48 | 1006.8 |
| 20260505175258 | 81 | 161 | 2.0 | 8.0 | 0.00 | 0.00 | 0.00 | 50 | 1006.8 |
| 20260505175159 | 81 | 140 | 5.0 | 8.0 | 0.00 | 0.00 | 0.00 | 55 | 1006.8 |
| 20260505175058 | 81 | 306 | 1.0 | 8.0 | 0.00 | 0.00 | 0.00 | 55 | 1006.9 |
| 20260505175000 | 81 | 205 | 3.0 | 8.0 | 0.00 | 0.00 | 0.00 | 49 | 1006.9 |
| 20260505174858 | 81 | 271 | 4.0 | 8.0 | 0.00 | 0.00 | 0.00 | 49 | 1006.9 |
| 20260505174758 | 80 | 267 | 3.0 | 8.0 | 0.00 | 0.00 | 0.00 | 51 | 1006.9 |
| 20260505174658 | 80 | 267 | 1.0 | 8.0 | 0.00 | 0.00 | 0.00 | 49 | 1006.9 |
| 20260505174557 | 80 | 267 | 7.0 | 9.0 | 0.00 | 0.00 | 0.00 | 50 | 1006.8 |
| 20260505174500 | 80 | 226 | 4.0 | 9.0 | 0.00 | 0.00 | 0.00 | 52 | 1006.8 |
| 20260505174359 | 80 | 81 | 2.0 | 9.0 | 0.00 | 0.00 | 0.00 | 49 | 1006.7 |
| 20260505174257 | 80 | 148 | 5.0 | 9.0 | 0.00 | 0.00 | 0.00 | 50 | 1006.8 |
| 20260505174158 | 80 | 250 | 3.0 | 9.0 | 0.00 | 0.00 | 0.00 | 50 | 1006.9 |
| 20260505174100 | 80 | 230 | 7.0 | 9.0 | 0.00 | 0.00 | 0.00 | 52 | 1006.8 |
| 20260505173959 | 80 | 167 | 3.0 | 9.0 | 0.00 | 0.00 | 0.00 | 53 | 1006.8 |
| 20260505173758 | 79 | 188 | 1.0 | 9.0 | 0.00 | 0.00 | 0.00 | 52 | 1006.8 |
| 20260505173700 | 79 | 188 | 2.0 | 9.0 | 0.00 | 0.00 | 0.00 | 51 | 1006.8 |
| 20260505173557 | 79 | 286 | 1.0 | 9.0 | 0.00 | 0.00 | 0.00 | 50 | 1006.8 |
| 20260505173500 | 79 | 182 | 2.0 | 9.0 | 0.00 | 0.00 | 0.00 | 50 | 1006.8 |
| 20260505173358 | 79 | 140 | 1.0 | 9.0 | 0.00 | 0.00 | 0.00 | 48 | 1006.9 |
| 20260505173258 | 80 | 124 | 7.0 | 9.0 | 0.00 | 0.00 | 0.00 | 48 | 1006.9 |
| 20260505173159 | 80 | 135 | 7.0 | 8.0 | 0.00 | 0.00 | 0.00 | 53 | 1007.0 |
| 20260505173059 | 80 | 159 | 1.0 | 8.0 | 0.00 | 0.00 | 0.00 | 50 | 1007.0 |
| 20260505172959 | 80 | 160 | 2.0 | 8.0 | 0.00 | 0.00 | 0.00 | 48 | 1007.0 |
| 20260505172859 | 80 | 140 | 5.0 | 9.0 | 0.00 | 0.00 | 0.00 | 48 | 1007.0 |
| 20260505172758 | 80 | 192 | 2.0 | 9.0 | 0.00 | 0.00 | 0.00 | 49 | 1007.0 |
| 20260505172659 | 80 | 197 | 5.0 | 9.0 | 0.00 | 0.00 | 0.00 | 49 | 1007.0 |
| 20260505172557 | 80 | 202 | 0.0 | 9.0 | 0.00 | 0.00 | 0.00 | 50 | 1007.0 |
| 20260505172358 | 80 | 201 | 1.0 | 9.0 | 0.00 | 0.00 | 0.00 | 50 | 1007.0 |
| 20260505172158 | 80 | 284 | 2.0 | 9.0 | 0.00 | 0.00 | 0.00 | 50 | 1006.9 |
| 20260505172057 | 80 | 284 | 4.0 | 9.0 | 0.00 | 0.00 | 0.00 | 49 | 1006.9 |
| 20260505171858 | 80 | 347 | 4.0 | 9.0 | 0.00 | 0.00 | 0.00 | 49 | 1007.0 |
| 20260505171758 | 80 | 260 | 2.0 | 13.0 | 0.00 | 0.00 | 0.00 | 49 | 1007.0 |
| 20260505171659 | 80 | 273 | 3.0 | 13.0 | 0.00 | 0.00 | 0.00 | 48 | 1007.0 |
| 20260505171558 | 80 | 242 | 1.0 | 13.0 | 0.00 | 0.00 | 0.00 | 48 | 1007.0 |
| 20260505171258 | 80 | 309 | 5.0 | 13.0 | 0.00 | 0.00 | 0.00 | 49 | 1007.1 |
| 20260505171159 | 80 | 282 | 2.0 | 13.0 | 0.00 | 0.00 | 0.00 | 47 | 1007.1 |
| 20260505171058 | 80 | 274 | 8.0 | 13.0 | 0.00 | 0.00 | 0.00 | 49 | 1007.1 |
| 20260505170959 | 80 | 44 | 4.0 | 13.0 | 0.00 | 0.00 | 0.00 | 50 | 1007.1 |
| 20260505170858 | 80 | 261 | 9.0 | 13.0 | 0.00 | 0.00 | 0.00 | 48 | 1007.1 |
| 20260505170757 | 80 | 252 | 4.0 | 10.0 | 0.00 | 0.00 | 0.00 | 51 | 1007.1 |
| 20260505170657 | 80 | 259 | 4.0 | 10.0 | 0.00 | 0.00 | 0.00 | 48 | 1007.1 |
| 20260505170459 | 80 | 261 | 2.0 | 10.0 | 0.00 | 0.00 | 0.00 | 48 | 1007.2 |
| 20260505170358 | 80 | 273 | 3.0 | 10.0 | 0.00 | 0.00 | 0.00 | 49 | 1007.2 |
| 20260505170257 | 80 | 288 | 4.0 | 10.0 | 0.00 | 0.00 | 0.00 | 50 | 1007.2 |
| 20260505170158 | 80 | 236 | 3.0 | 10.0 | 0.00 | 0.00 | 0.00 | 48 | 1007.2 |
| 20260505170059 | 80 | 302 | 4.0 | 11.0 | 0.00 | 0.00 | 0.00 | 53 | 1007.2 |
| 20260505165959 | 80 | 263 | 3.0 | 11.0 | 0.00 | 0.00 | 0.00 | 49 | 1007.1 |
| 20260505165857 | 80 | 248 | 3.0 | 11.0 | 0.00 | 0.00 | 0.00 | 48 | 1007.2 |
| 20260505165759 | 80 | 268 | 6.0 | 11.0 | 0.00 | 0.00 | 0.00 | 48 | 1007.3 |
| 20260505165658 | 80 | 258 | 2.0 | 11.0 | 0.00 | 0.00 | 0.00 | 51 | 1007.3 |
| 20260505165459 | 79 | 242 | 3.0 | 11.0 | 0.00 | 0.00 | 0.00 | 51 | 1007.3 |
| 20260505165259 | 79 | 254 | 3.0 | 11.0 | 0.00 | 0.00 | 0.00 | 53 | 1007.3 |
| 20260505165157 | 79 | 252 | 4.0 | 11.0 | 0.00 | 0.00 | 0.00 | 53 | 1007.3 |
| 20260505165058 | 79 | 265 | 2.0 | 11.0 | 0.00 | 0.00 | 0.00 | 50 | 1007.3 |
| 20260505165000 | 79 | 288 | 5.0 | 11.0 | 0.00 | 0.00 | 0.00 | 51 | 1007.4 |
| 20260505164858 | 79 | 230 | 2.0 | 11.0 | 0.00 | 0.00 | 0.00 | 52 | 1007.6 |
| 20260505164758 | 79 | 222 | 3.0 | 11.0 | 0.00 | 0.00 | 0.00 | 52 | 1007.4 |
| 20260505164659 | 79 | 261 | 3.0 | 11.0 | 0.00 | 0.00 | 0.00 | 49 | 1007.4 |
| 20260505164558 | 79 | 309 | 7.0 | 11.0 | 0.00 | 0.00 | 0.00 | 52 | 1007.6 |
| 20260505164358 | 79 | 247 | 3.0 | 11.0 | 0.00 | 0.00 | 0.00 | 52 | 1007.6 |
| 20260505164257 | 79 | 225 | 2.0 | 11.0 | 0.00 | 0.00 | 0.00 | 50 | 1007.6 |
| 20260505164159 | 78 | 262 | 10.0 | 11.0 | 0.00 | 0.00 | 0.00 | 50 | 1007.6 |
| 20260505164058 | 78 | 254 | 2.0 | 9.0 | 0.00 | 0.00 | 0.00 | 53 | 1007.7 |
| 20260505163959 | 78 | 260 | 6.0 | 9.0 | 0.00 | 0.00 | 0.00 | 53 | 1007.8 |
| 20260505163900 | 78 | 250 | 3.0 | 9.0 | 0.00 | 0.00 | 0.00 | 53 | 1007.8 |
| 20260505163659 | 78 | 257 | 3.0 | 13.0 | 0.00 | 0.00 | 0.00 | 52 | 1007.8 |
| 20260505163558 | 78 | 286 | 6.0 | 13.0 | 0.00 | 0.00 | 0.00 | 52 | 1007.9 |
| 20260505163459 | 78 | 248 | 4.0 | 13.0 | 0.00 | 0.00 | 0.00 | 50 | 1008.0 |
| 20260505163358 | 78 | 269 | 7.0 | 13.0 | 0.00 | 0.00 | 0.00 | 52 | 1008.0 |
| 20260505163258 | 78 | 266 | 3.0 | 13.0 | 0.00 | 0.00 | 0.00 | 50 | 1007.9 |
| 20260505163200 | 78 | 267 | 3.0 | 13.0 | 0.00 | 0.00 | 0.00 | 51 | 1007.9 |
| 20260505163058 | 78 | 253 | 2.0 | 13.0 | 0.00 | 0.00 | 0.00 | 51 | 1007.9 |
| 20260505162959 | 78 | 242 | 4.0 | 13.0 | 0.00 | 0.00 | 0.00 | 52 | 1008.0 |
| 20260505162859 | 78 | 304 | 3.0 | 13.0 | 0.00 | 0.00 | 0.00 | 50 | 1007.9 |
| 20260505162659 | 79 | 261 | 4.0 | 9.0 | 0.00 | 0.00 | 0.00 | 50 | 1007.9 |
| 20260505162559 | 79 | 237 | 4.0 | 9.0 | 0.00 | 0.00 | 0.00 | 51 | 1008.0 |
| 20260505162459 | 79 | 235 | 4.0 | 9.0 | 0.00 | 0.00 | 0.00 | 53 | 1007.9 |
| 20260505162357 | 79 | 205 | 6.0 | 9.0 | 0.00 | 0.00 | 0.00 | 53 | 1007.9 |
| 20260505162258 | 79 | 281 | 6.0 | 9.0 | 0.00 | 0.00 | 0.00 | 53 | 1008.0 |
| 20260505162158 | 78 | 253 | 5.0 | 9.0 | 0.00 | 0.00 | 0.00 | 51 | 1008.0 |
| 20260505162057 | 79 | 243 | 5.0 | 9.0 | 0.00 | 0.00 | 0.00 | 51 | 1007.9 |
| 20260505161958 | 79 | 262 | 3.0 | 7.0 | 0.00 | 0.00 | 0.00 | 50 | 1007.9 |
| 20260505161758 | 79 | 220 | 3.0 | 7.0 | 0.00 | 0.00 | 0.00 | 52 | 1008.0 |
| 20260505161657 | 79 | 312 | 5.0 | 7.0 | 0.00 | 0.00 | 0.00 | 54 | 1008.0 |
| 20260505161558 | 79 | 230 | 6.0 | 7.0 | 0.00 | 0.00 | 0.00 | 51 | 1007.9 |
| 20260505161358 | 79 | 219 | 4.0 | 10.0 | 0.00 | 0.00 | 0.00 | 52 | 1007.9 |
| 20260505161258 | 79 | 266 | 7.0 | 10.0 | 0.00 | 0.00 | 0.00 | 52 | 1007.9 |
| 20260505161159 | 78 | 209 | 3.0 | 10.0 | 0.00 | 0.00 | 0.00 | 52 | 1007.9 |
| 20260505161057 | 78 | 216 | 3.0 | 10.0 | 0.00 | 0.00 | 0.00 | 52 | 1007.9 |
| 20260505160959 | 78 | 214 | 3.0 | 10.0 | 0.00 | 0.00 | 0.00 | 53 | 1007.9 |
| 20260505160859 | 78 | 226 | 4.0 | 10.0 | 0.00 | 0.00 | 0.00 | 52 | 1007.9 |
| 20260505160758 | 78 | 235 | 3.0 | 10.0 | 0.00 | 0.00 | 0.00 | 54 | 1007.9 |
| 20260505160558 | 78 | 268 | 8.0 | 10.0 | 0.00 | 0.00 | 0.00 | 51 | 1008.0 |
| 20260505160500 | 79 | 259 | 6.0 | 9.0 | 0.00 | 0.00 | 0.00 | 52 | 1008.0 |
| 20260505160158 | 78 | 221 | 1.0 | 9.0 | 0.00 | 0.00 | 0.00 | 53 | 1008.0 |
| 20260505153357 | 77 | 189 | 3.0 | 6.0 | 0.00 | 0.00 | 0.00 | 54 | 1007.8 |
| 20260505153258 | 77 | 248 | 3.0 | 6.0 | 0.00 | 0.00 | 0.00 | 57 | 1008.0 |
| 20260505153158 | 77 | 218 | 1.0 | 7.0 | 0.00 | 0.00 | 0.00 | 57 | 1008.0 |
| 20260505153057 | 77 | 214 | 4.0 | 8.0 | 0.00 | 0.00 | 0.00 | 56 | 1008.0 |
| 20260505152959 | 77 | 290 | 3.0 | 8.0 | 0.00 | 0.00 | 0.00 | 57 | 1008.0 |
| 20260505152857 | 77 | 217 | 3.0 | 8.0 | 0.00 | 0.00 | 0.00 | 55 | 1008.0 |
| 20260505152657 | 77 | 207 | 3.0 | 8.0 | 0.00 | 0.00 | 0.00 | 58 | 1008.1 |
| 20260505152558 | 77 | 242 | 4.0 | 8.0 | 0.00 | 0.00 | 0.00 | 55 | 1008.1 |
| 20260505152357 | 77 | 272 | 2.0 | 8.0 | 0.00 | 0.00 | 0.00 | 56 | 1008.1 |
| 20260505152257 | 77 | 263 | 3.0 | 8.0 | 0.00 | 0.00 | 0.00 | 54 | 1008.1 |
| 20260505152057 | 77 | 279 | 4.0 | 7.0 | 0.00 | 0.00 | 0.00 | 56 | 1008.1 |
| 20260505151959 | 77 | 252 | 2.0 | 7.0 | 0.00 | 0.00 | 0.00 | 57 | 1008.1 |
| 20260505151757 | 76 | 200 | 2.0 | 7.0 | 0.00 | 0.00 | 0.00 | 57 | 1008.1 |
| 20260505151659 | 76 | 200 | 3.0 | 7.0 | 0.00 | 0.00 | 0.00 | 57 | 1008.1 |
| 20260505151558 | 76 | 246 | 2.0 | 7.0 | 0.00 | 0.00 | 0.00 | 57 | 1008.0 |
| 20260505151457 | 76 | 296 | 2.0 | 8.0 | 0.00 | 0.00 | 0.00 | 57 | 1008.1 |
| 20260505151356 | 76 | 291 | 2.0 | 8.0 | 0.00 | 0.00 | 0.00 | 59 | 1008.1 |
| 20260505151258 | 76 | 214 | 3.0 | 8.0 | 0.00 | 0.00 | 0.00 | 59 | 1008.1 |
| 20260505151057 | 76 | 240 | 1.0 | 5.0 | 0.00 | 0.00 | 0.00 | 62 | 1008.1 |
| 20260505151000 | 76 | 240 | 2.0 | 5.0 | 0.00 | 0.00 | 0.00 | 58 | 1008.1 |
| 20260505150759 | 76 | 194 | 1.0 | 5.0 | 0.00 | 0.00 | 0.00 | 60 | 1008.2 |
| 20260505150658 | 76 | 187 | 3.0 | 5.0 | 0.00 | 0.00 | 0.00 | 60 | 1008.2 |
| 20260505150458 | 76 | 229 | 2.0 | 5.0 | 0.00 | 0.00 | 0.00 | 60 | 1008.1 |
| 20260505150359 | 75 | 192 | 3.0 | 5.0 | 0.00 | 0.00 | 0.00 | 62 | 1008.2 |
| 20260505150258 | 75 | 198 | 4.0 | 5.0 | 0.00 | 0.00 | 0.00 | 60 | 1008.1 |
| 20260505140558 | 71 | 285 | 3.0 | 5.0 | 0.00 | 0.00 | 0.00 | 67 | 1008.9 |
| 20260505140459 | 71 | 169 | 2.0 | 5.0 | 0.00 | 0.00 | 0.00 | 67 | 1008.9 |
| 20260505140357 | 70 | 215 | 0.0 | 5.0 | 0.00 | 0.00 | 0.00 | 69 | 1009.0 |
| 20260505140258 | 70 | 215 | 2.0 | 5.0 | 0.00 | 0.00 | 0.00 | 67 | 1008.9 |
| 20260505140158 | 70 | 263 | 1.0 | 5.0 | 0.00 | 0.00 | 0.00 | 66 | 1008.9 |
| 20260505130258 | 65 | 140 | 1.0 | 4.0 | 0.00 | 0.00 | 0.00 | 76 | 1009.6 |
| 20260505130200 | 65 | 199 | 0.0 | 3.0 | 0.00 | 0.00 | 0.00 | 75 | 1009.6 |
| 20260505124859 | 64 | 161 | 1.0 | 6.0 | 0.00 | 0.00 | 0.00 | 74 | 1009.6 |
| 20260505124757 | 64 | 161 | 1.0 | 6.0 | 0.00 | 0.00 | 0.00 | 75 | 1009.6 |
| 20260505124657 | 64 | 161 | 2.0 | 6.0 | 0.00 | 0.00 | 0.00 | 76 | 1009.6 |
| 20260505124558 | 64 | 161 | 2.0 | 6.0 | 0.00 | 0.00 | 0.00 | 76 | 1009.6 |
| 20260505124458 | 64 | 161 | 1.0 | 6.0 | 0.00 | 0.00 | 0.00 | 75 | 1009.5 |
| 20260505124357 | 64 | 167 | 6.0 | 6.0 | 0.00 | 0.00 | 0.00 | 75 | 1009.5 |
| 20260505124257 | 64 | 189 | 3.0 | 4.0 | 0.00 | 0.00 | 0.00 | 75 | 1009.5 |
| 20260505124158 | 64 | 196 | 2.0 | 4.0 | 0.00 | 0.00 | 0.00 | 76 | 1009.5 |
| 20260505124058 | 64 | 161 | 4.0 | 4.0 | 0.00 | 0.00 | 0.00 | 79 | 1009.6 |
| 20260505123958 | 64 | 171 | 1.0 | 2.0 | 0.00 | 0.00 | 0.00 | 79 | 1009.5 |
| 20260505123857 | 64 | 171 | 0.0 | 2.0 | 0.00 | 0.00 | 0.00 | 79 | 1009.5 |
| 20260505123759 | 64 | 171 | 1.0 | 2.0 | 0.00 | 0.00 | 0.00 | 79 | 1009.5 |
| 20260505123657 | 63 | 171 | 0.0 | 2.0 | 0.00 | 0.00 | 0.00 | 78 | 1009.5 |
| 20260505123558 | 63 | 171 | 1.0 | 2.0 | 0.00 | 0.00 | 0.00 | 79 | 1009.5 |
| 20260505123500 | 63 | 171 | 1.0 | 3.0 | 0.00 | 0.00 | 0.00 | 79 | 1009.5 |
| 20260505123157 | 62 | 171 | 0.0 | 4.0 | 0.00 | 0.00 | 0.00 | 81 | 1009.4 |
| 20260505123058 | 62 | 171 | 0.0 | 4.0 | 0.00 | 0.00 | 0.00 | 81 | 1009.4 |
| 20260505122959 | 62 | 171 | 1.0 | 4.0 | 0.00 | 0.00 | 0.00 | 82 | 1009.5 |
| 20260505122858 | 62 | 171 | 1.0 | 4.0 | 0.00 | 0.00 | 0.00 | 81 | 1009.5 |
| 20260505122657 | 62 | 171 | 0.0 | 4.0 | 0.00 | 0.00 | 0.00 | 80 | 1009.5 |
| 20260505122557 | 61 | 171 | 4.0 | 4.0 | 0.00 | 0.00 | 0.00 | 82 | 1009.5 |
| 20260505122458 | 61 | 279 | 1.0 | 4.0 | 0.00 | 0.00 | 0.00 | 82 | 1009.5 |
| 20260505122258 | 61 | 177 | 0.0 | 4.0 | 0.00 | 0.00 | 0.00 | 82 | 1009.4 |
| 20260505122157 | 61 | 177 | 1.0 | 4.0 | 0.00 | 0.00 | 0.00 | 82 | 1009.4 |
| 20260505122058 | 61 | 177 | 2.0 | 4.0 | 0.00 | 0.00 | 0.00 | 82 | 1009.6 |
| 20260505121959 | 60 | 177 | 3.0 | 4.0 | 0.00 | 0.00 | 0.00 | 84 | 1009.6 |
| 20260505121857 | 60 | 178 | 1.0 | 4.0 | 0.00 | 0.00 | 0.00 | 83 | 1009.5 |
| 20260505121658 | 59 | 209 | 2.0 | 4.0 | 0.00 | 0.00 | 0.00 | 85 | 1009.4 |
| 20260505121601 | 59 | 209 | 2.0 | 4.0 | 0.00 | 0.00 | 0.00 | 86 | 1009.4 |
| 20260505121357 | 59 | 143 | 3.0 | 3.0 | 0.00 | 0.00 | 0.00 | 87 | 1009.5 |
| 20260505121057 | 58 | 142 | 1.0 | 3.0 | 0.00 | 0.00 | 0.00 | 87 | 1009.4 |
| 20260505120958 | 58 | 142 | 1.0 | 3.0 | 0.00 | 0.00 | 0.00 | 88 | 1009.4 |
| 20260505120857 | 58 | 141 | 0.0 | 3.0 | 0.00 | 0.00 | 0.00 | 88 | 1009.4 |
| 20260505120658 | 58 | 141 | 1.0 | 3.0 | 0.00 | 0.00 | 0.00 | 88 | 1009.4 |
| 20260505120458 | 57 | 140 | 0.0 | 2.0 | 0.00 | 0.00 | 0.00 | 90 | 1009.4 |
| 20260505120357 | 57 | 140 | 0.0 | 1.0 | 0.00 | 0.00 | 0.00 | 90 | 1009.4 |
| 20260505120259 | 57 | 140 | 0.0 | 1.0 | 0.00 | 0.00 | 0.00 | 90 | 1009.4 |
| 20260505120157 | 57 | 140 | 0.0 | 1.0 | 0.00 | 0.00 | 0.00 | 91 | 1009.4 |
| 20260505120057 | 57 | 140 | 0.0 | 1.0 | 0.00 | 0.00 | 0.00 | 90 | 1009.4 |
| 20260505115959 | 56 | 140 | 0.0 | 1.0 | 0.00 | 0.00 | 0.00 | 91 | 1009.4 |
| 20260505115758 | 56 | 140 | 0.0 | 1.0 | 0.00 | 0.00 | 0.00 | 92 | 1009.4 |
| 20260505115657 | 56 | 140 | 0.0 | 1.0 | 0.00 | 0.00 | 0.00 | 91 | 1009.4 |
| 20260505115556 | 56 | 140 | 1.0 | 1.0 | 0.00 | 0.00 | 0.00 | 91 | 1009.3 |
| 20260505115458 | 56 | 140 | 0.0 | 0.0 | 0.00 | 0.00 | 0.00 | 91 | 1009.3 |
| 20260505115359 | 56 | 140 | 0.0 | 0.0 | 0.00 | 0.00 | 0.00 | 92 | 1009.3 |
| 20260505115156 | 56 | 140 | 0.0 | 0.0 | 0.00 | 0.00 | 0.00 | 92 | 1009.3 |
| 20260505114858 | 56 | 140 | 0.0 | 0.0 | 0.00 | 0.00 | 0.00 | 93 | 1009.3 |
| 20260505114757 | 56 | 140 | 0.0 | 0.0 | 0.00 | 0.00 | 0.00 | 93 | 1009.3 |
| 20260505114656 | 56 | 140 | 0.0 | 0.0 | 0.00 | 0.00 | 0.00 | 93 | 1009.3 |
| 20260505114557 | 55 | 140 | 0.0 | 1.0 | 0.00 | 0.00 | 0.00 | 93 | 1009.3 |
| 20260505114459 | 55 | 140 | 0.0 | 1.0 | 0.00 | 0.00 | 0.00 | 93 | 1009.3 |
| 20260505114357 | 55 | 140 | 0.0 | 1.0 | 0.00 | 0.00 | 0.00 | 93 | 1009.2 |
| 20260505114256 | 55 | 140 | 0.0 | 1.0 | 0.00 | 0.00 | 0.00 | 93 | 1009.2 |
| 20260505114157 | 55 | 140 | 0.0 | 1.0 | 0.00 | 0.00 | 0.00 | 93 | 1009.2 |
| 20260505113959 | 55 | 140 | 0.0 | 1.0 | 0.00 | 0.00 | 0.00 | 93 | 1009.1 |
| 20260505113657 | 55 | 140 | 0.0 | 1.0 | 0.00 | 0.00 | 0.00 | 94 | 1009.1 |
| 20260505113557 | 55 | 140 | 0.0 | 0.0 | 0.00 | 0.00 | 0.00 | 94 | 1009.1 |
| 20260505113459 | 55 | 140 | 0.0 | 0.0 | 0.00 | 0.00 | 0.00 | 94 | 1009.1 |
| 20260505113356 | 54 | 140 | 0.0 | 0.0 | 0.00 | 0.00 | 0.00 | 94 | 1009.0 |
| 20260505113258 | 54 | 140 | 0.0 | 1.0 | 0.00 | 0.00 | 0.00 | 94 | 1009.1 |
| 20260505113156 | 54 | 140 | 0.0 | 1.0 | 0.00 | 0.00 | 0.00 | 94 | 1009.1 |
| 20260505113058 | 54 | 140 | 0.0 | 1.0 | 0.00 | 0.00 | 0.00 | 94 | 1009.0 |
| 20260505112856 | 54 | 140 | 0.0 | 1.0 | 0.00 | 0.00 | 0.00 | 94 | 1009.0 |
| 20260505112757 | 54 | 140 | 0.0 | 1.0 | 0.00 | 0.00 | 0.00 | 94 | 1009.1 |
| 20260505112656 | 54 | 140 | 0.0 | 1.0 | 0.00 | 0.00 | 0.00 | 94 | 1009.1 |
| 20260505112556 | 54 | 140 | 0.0 | 1.0 | 0.00 | 0.00 | 0.00 | 94 | 1009.0 |
| 20260505112457 | 54 | 140 | 0.0 | 1.0 | 0.00 | 0.00 | 0.00 | 94 | 1009.0 |
| 20260505112257 | 53 | 140 | 0.0 | 1.0 | 0.00 | 0.00 | 0.00 | 94 | 1009.0 |
| 20260505112156 | 53 | 140 | 0.0 | 1.0 | 0.00 | 0.00 | 0.00 | 94 | 1009.0 |
| 20260505112057 | 53 | 140 | 0.0 | 1.0 | 0.00 | 0.00 | 0.00 | 94 | 1009.0 |
| 20260505111958 | 53 | 140 | 0.0 | 1.0 | 0.00 | 0.00 | 0.00 | 94 | 1009.0 |
| 20260505111857 | 53 | 140 | 0.0 | 1.0 | 0.00 | 0.00 | 0.00 | 94 | 1009.0 |